UAE1048 KMCO-LIMC

Flight info

Callsign UAE1048
Flight time 9h 3m
Altitude 35000
Route MZULO3 ETECK KR90W JAINS 3768N 3760N 3850N 3940N 3930N 4020N ERPES DIRMA BARDI PINAR PONEN PIVUS DIBER NETUP STP RAPED PIGOS EKSID NOSTA NOPMU ANAKI P860 DEVOX
Aircraft A388/J-SADE2E3FGHIJ3J4J5M1RWXY/LB1D1

Departure

Time 2026-04-25 11:54
Airport Orlando International Airport (KMCO)

Arrival

Time 2026-04-25 20:58
Airport Milan Malpensa International Airport (LIMC)
Time Latitude Longitude Altitude Speed Heading
2026-04-25 10:06 28.42685 -81.31190 107 ft 0 kts 282°
2026-04-25 11:28 28.42683 -81.31178 106 ft 2 kts 282°
2026-04-25 11:29 28.42680 -81.31164 105 ft 2 kts 282°
2026-04-25 11:29 28.42681 -81.31150 105 ft 2 kts 255°
2026-04-25 11:29 28.42689 -81.31138 103 ft 2 kts 224°
2026-04-25 11:29 28.42701 -81.31134 104 ft 2 kts 182°
2026-04-25 11:30 28.42706 -81.31135 103 ft 0 kts 168°
2026-04-25 11:36 28.42698 -81.31133 104 ft 3 kts 168°
2026-04-25 11:36 28.42668 -81.31126 106 ft 6 kts 171°
2026-04-25 11:36 28.42624 -81.31128 107 ft 7 kts 197°
2026-04-25 11:36 28.42570 -81.31158 106 ft 11 kts 211°
2026-04-25 11:37 28.42490 -81.31214 103 ft 11 kts 212°
2026-04-25 11:37 28.42456 -81.31238 105 ft 0 kts 212°
2026-04-25 11:38 28.42451 -81.31241 102 ft 2 kts 212°
2026-04-25 11:38 28.42429 -81.31257 101 ft 5 kts 212°
2026-04-25 11:38 28.42388 -81.31282 100 ft 7 kts 190°
2026-04-25 11:38 28.42360 -81.31266 103 ft 5 kts 116°
2026-04-25 11:39 28.42347 -81.31214 100 ft 9 kts 100°
2026-04-25 11:39 28.42335 -81.31132 100 ft 12 kts 99°
2026-04-25 11:39 28.42321 -81.31033 98 ft 13 kts 95°
2026-04-25 11:39 28.42323 -81.30921 97 ft 15 kts 86°
2026-04-25 11:40 28.42328 -81.30812 106 ft 10 kts 86°
2026-04-25 11:40 28.42330 -81.30785 108 ft 0 kts 86°
2026-04-25 11:40 28.42330 -81.30774 109 ft 8 kts 86°
2026-04-25 11:40 28.42340 -81.30633 110 ft 22 kts 85°
2026-04-25 11:41 28.42351 -81.30464 108 ft 21 kts 87°
2026-04-25 11:41 28.42358 -81.30290 109 ft 21 kts 87°
2026-04-25 11:41 28.42364 -81.30133 108 ft 19 kts 88°
2026-04-25 11:41 28.42366 -81.29983 108 ft 19 kts 90°
2026-04-25 11:42 28.42365 -81.29863 108 ft 7 kts 90°
2026-04-25 11:42 28.42384 -81.29810 107 ft 7 kts 35°
2026-04-25 11:42 28.42441 -81.29794 107 ft 10 kts
2026-04-25 11:42 28.42480 -81.29794 107 ft 9 kts
2026-04-25 11:43 28.42483 -81.29794 107 ft 0 kts
2026-04-25 11:43 28.42486 -81.29794 107 ft 2 kts 360°
2026-04-25 11:44 28.42500 -81.29794 107 ft 5 kts 358°
2026-04-25 11:44 28.42565 -81.29796 108 ft 9 kts
2026-04-25 11:44 28.42614 -81.29796 108 ft 11 kts 358°
2026-04-25 11:44 28.42699 -81.29800 108 ft 14 kts 359°
2026-04-25 11:45 28.42800 -81.29800 108 ft 16 kts 360°
2026-04-25 11:45 28.42914 -81.29800 108 ft 17 kts
2026-04-25 11:45 28.43016 -81.29801 107 ft 11 kts 359°
2026-04-25 11:45 28.43089 -81.29802 107 ft 5 kts 359°
2026-04-25 11:46 28.43128 -81.29803 107 ft 0 kts 359°
2026-04-25 11:48 28.43141 -81.29803 107 ft 4 kts 359°
2026-04-25 11:48 28.43184 -81.29804 108 ft 8 kts 359°
2026-04-25 11:49 28.43251 -81.29804 107 ft 11 kts 360°
2026-04-25 11:49 28.43338 -81.29804 106 ft 14 kts 359°
2026-04-25 11:49 28.43440 -81.29805 107 ft 15 kts 358°
2026-04-25 11:49 28.43521 -81.29804 107 ft 10 kts 19°
2026-04-25 11:50 28.43544 -81.29781 107 ft 0 kts 77°
2026-04-25 11:50 28.43545 -81.29777 107 ft 2 kts 77°
2026-04-25 11:50 28.43551 -81.29742 105 ft 6 kts 83°
2026-04-25 11:51 28.43552 -81.29727 107 ft 0 kts 88°
2026-04-25 11:51 28.43552 -81.29722 106 ft 2 kts 88°
2026-04-25 11:52 28.43553 -81.29688 106 ft 6 kts 88°
2026-04-25 11:52 28.43555 -81.29632 106 ft 8 kts 89°
2026-04-25 11:52 28.43548 -81.29604 106 ft 1 kts 150°
2026-04-25 11:52 28.43532 -81.29596 108 ft 3 kts 160°
2026-04-25 11:53 28.43512 -81.29590 108 ft 0 kts 172°
2026-04-25 11:53 28.43511 -81.29589 108 ft 1 kts 172°
2026-04-25 11:53 28.43468 -81.29585 109 ft 21 kts 176°
2026-04-25 11:54 28.43057 -81.29580 110 ft 98 kts 179°
2026-04-25 11:54 28.42167 -81.29571 107 ft 154 kts 179°
2026-04-25 11:54 28.39841 -81.29321 904 ft 173 kts 167°
2026-04-25 11:55 28.38721 -81.28895 1556 ft 167 kts 159°
2026-04-25 11:55 28.37671 -81.28322 2027 ft 173 kts 155°
2026-04-25 11:55 28.36553 -81.27663 2179 ft 188 kts 154°
2026-04-25 11:55 28.35370 -81.26939 2305 ft 197 kts 151°
2026-04-25 11:56 28.34289 -81.25938 2369 ft 209 kts 126°
2026-04-25 11:56 28.33851 -81.24346 2532 ft 218 kts 92°
2026-04-25 11:56 28.34141 -81.22608 2643 ft 236 kts 71°
2026-04-25 11:56 28.34789 -81.20858 2978 ft 251 kts 66°
2026-04-25 11:57 28.35548 -81.18975 3335 ft 267 kts 66°
2026-04-25 11:57 28.36298 -81.17045 4045 ft 268 kts 68°
2026-04-25 11:57 28.37011 -81.15070 4702 ft 272 kts 68°
2026-04-25 11:57 28.37713 -81.13070 5477 ft 271 kts 68°
2026-04-25 11:58 28.38392 -81.11046 6104 ft 276 kts 69°
2026-04-25 11:58 28.39062 -81.08992 6744 ft 278 kts 70°
2026-04-25 11:58 28.39738 -81.06918 7358 ft 282 kts 69°
2026-04-25 11:58 28.40425 -81.04834 7913 ft 287 kts 69°
2026-04-25 11:59 28.41120 -81.02707 8647 ft 288 kts 69°
2026-04-25 11:59 28.41827 -81.00539 9116 ft 298 kts 69°
2026-04-25 11:59 28.42559 -80.98324 9769 ft 298 kts 69°
2026-04-25 12:00 28.44026 -80.93942 11035 ft 302 kts 68°
2026-04-25 12:00 28.44773 -80.91631 11195 ft 320 kts 69°
2026-04-25 12:00 28.46357 -80.86625 11531 ft 352 kts 69°
2026-04-25 12:01 28.47203 -80.83977 11966 ft 358 kts 70°
2026-04-25 12:01 28.47822 -80.81262 12494 ft 362 kts 79°
2026-04-25 12:01 28.48136 -80.78409 13010 ft 366 kts 82°
2026-04-25 12:01 28.48441 -80.75525 13534 ft 369 kts 82°
2026-04-25 12:02 28.49096 -80.69684 14498 ft 375 kts 81°
2026-04-25 12:02 28.49428 -80.66725 14892 ft 378 kts 81°
2026-04-25 12:02 28.49758 -80.63774 15334 ft 381 kts 81°
2026-04-25 12:03 28.50091 -80.60767 15782 ft 384 kts 81°
2026-04-25 12:03 28.50426 -80.57739 16229 ft 387 kts 81°
2026-04-25 12:03 28.50762 -80.54687 16648 ft 391 kts 81°
2026-04-25 12:03 28.51102 -80.51600 17092 ft 394 kts 81°
2026-04-25 12:04 28.51443 -80.48486 17523 ft 398 kts 81°
2026-04-25 12:04 28.51787 -80.45350 17948 ft 401 kts 81°
2026-04-25 12:04 28.52128 -80.42230 18331 ft 404 kts 81°
2026-04-25 12:04 28.52475 -80.39044 18720 ft 406 kts 81°
2026-04-25 12:05 28.52823 -80.35845 19089 ft 409 kts 81°
2026-04-25 12:05 28.53174 -80.32613 19468 ft 411 kts 81°
2026-04-25 12:05 28.53677 -80.29453 19836 ft 411 kts 72°
2026-04-25 12:05 28.54588 -80.26365 20226 ft 410 kts 64°
2026-04-25 12:06 28.55747 -80.23394 20601 ft 412 kts 63°
2026-04-25 12:06 28.56895 -80.20397 20969 ft 414 kts 64°
2026-04-25 12:06 28.58038 -80.17376 21340 ft 416 kts 64°
2026-04-25 12:06 28.59182 -80.14346 21714 ft 418 kts 64°
2026-04-25 12:07 28.60334 -80.11298 22077 ft 420 kts 64°
2026-04-25 12:07 28.61491 -80.08234 22447 ft 422 kts 64°
2026-04-25 12:07 28.62654 -80.05157 22802 ft 424 kts 64°
2026-04-25 12:07 28.63806 -80.02107 23171 ft 425 kts 64°
2026-04-25 12:08 28.64979 -79.98998 23521 ft 427 kts 64°
2026-04-25 12:08 28.66157 -79.95875 23840 ft 429 kts 64°
2026-04-25 12:08 28.67338 -79.92741 24151 ft 430 kts 64°
2026-04-25 12:08 28.68521 -79.89600 24462 ft 431 kts 64°
2026-04-25 12:09 28.69706 -79.86450 24776 ft 433 kts 65°
2026-04-25 12:09 28.70875 -79.83340 25082 ft 434 kts 65°
2026-04-25 12:09 28.72070 -79.80158 25406 ft 436 kts 65°
2026-04-25 12:09 28.73268 -79.76965 25728 ft 438 kts 65°
2026-04-25 12:10 28.74465 -79.73771 26065 ft 439 kts 65°
2026-04-25 12:10 28.75655 -79.70595 26409 ft 441 kts 65°
2026-04-25 12:10 28.76863 -79.67367 26758 ft 443 kts 65°
2026-04-25 12:10 28.78074 -79.64130 27123 ft 445 kts 65°
2026-04-25 12:11 28.79291 -79.60874 27500 ft 447 kts 65°
2026-04-25 12:11 28.80539 -79.57615 27858 ft 448 kts 62°
2026-04-25 12:11 28.82075 -79.54525 28211 ft 448 kts 54°
2026-04-25 12:11 28.83889 -79.51634 28590 ft 449 kts 52°
2026-04-25 12:12 28.85706 -79.48773 28942 ft 451 kts 52°
2026-04-25 12:12 28.86942 -79.46807 29188 ft 452 kts 52°
2026-04-25 12:12 28.89382 -79.42913 29690 ft 455 kts 53°
2026-04-25 12:12 28.91236 -79.39953 30062 ft 457 kts 53°
2026-04-25 12:13 28.93094 -79.36988 30366 ft 460 kts 53°
2026-04-25 12:13 28.94936 -79.34047 30670 ft 462 kts 53°
2026-04-25 12:13 28.96816 -79.31046 30966 ft 464 kts 53°
2026-04-25 12:13 28.98699 -79.28038 31274 ft 467 kts 53°
2026-04-25 12:14 29.00596 -79.25003 31575 ft 469 kts 53°
2026-04-25 12:14 29.02501 -79.21957 31865 ft 471 kts 53°
2026-04-25 12:14 29.04393 -79.18926 32169 ft 474 kts 53°
2026-04-25 12:14 29.06335 -79.15815 32467 ft 476 kts 53°
2026-04-25 12:15 29.08246 -79.12751 32750 ft 478 kts 53°
2026-04-25 12:15 29.10182 -79.09644 33042 ft 480 kts 53°
2026-04-25 12:15 29.12123 -79.06527 33341 ft 482 kts 53°
2026-04-25 12:15 29.14078 -79.03384 33637 ft 485 kts 53°
2026-04-25 12:16 29.16037 -79.00234 33916 ft 487 kts 53°
2026-04-25 12:16 29.17982 -78.97103 34171 ft 489 kts 53°
2026-04-25 12:16 29.19961 -78.93916 34446 ft 490 kts 53°
2026-04-25 12:16 29.21941 -78.90724 34769 ft 491 kts 53°
2026-04-25 12:17 29.23920 -78.87530 34995 ft 494 kts 53°
2026-04-25 12:17 29.25913 -78.84314 34984 ft 494 kts 53°
2026-04-25 12:17 29.29880 -78.77900 34982 ft 494 kts 53°
2026-04-25 12:18 29.33853 -78.71469 34990 ft 494 kts 53°
2026-04-25 12:18 29.37815 -78.65069 34989 ft 494 kts 52°
2026-04-25 12:19 29.44042 -78.55625 34983 ft 493 kts 51°
2026-04-25 12:20 29.48267 -78.49476 34980 ft 492 kts 45°
2026-04-25 12:20 29.53352 -78.44248 34966 ft 489 kts 37°
2026-04-25 12:21 29.58597 -78.39310 34971 ft 490 kts 38°
2026-04-25 12:21 29.63867 -78.34317 34974 ft 490 kts 38°
2026-04-25 12:22 29.69143 -78.29325 34991 ft 491 kts 38°
2026-04-25 12:22 29.74389 -78.24358 34991 ft 491 kts 38°
2026-04-25 12:23 29.79671 -78.19350 34984 ft 492 kts 38°
2026-04-25 12:23 29.84964 -78.14325 34979 ft 492 kts 38°
2026-04-25 12:24 29.90217 -78.09331 34989 ft 492 kts 38°
2026-04-25 12:24 29.95504 -78.04297 34991 ft 492 kts 38°
2026-04-25 12:25 30.00869 -77.99378 34996 ft 491 kts 32°
2026-04-25 12:25 30.06667 -77.95183 34980 ft 491 kts 31°
2026-04-25 12:26 30.12417 -77.90995 34980 ft 492 kts 31°
2026-04-25 12:26 30.18204 -77.86775 34981 ft 492 kts 31°
2026-04-25 12:27 30.24006 -77.82544 34985 ft 493 kts 31°
2026-04-25 12:27 30.29813 -77.78304 34984 ft 493 kts 31°
2026-04-25 12:28 30.35620 -77.74058 34987 ft 493 kts 31°
2026-04-25 12:28 30.41394 -77.69830 34987 ft 493 kts 31°
2026-04-25 12:29 30.47206 -77.65568 34989 ft 493 kts 31°
2026-04-25 12:29 30.52036 -77.62021 34993 ft 494 kts 31°
2026-04-25 12:30 30.58799 -77.57048 34991 ft 494 kts 31°
2026-04-25 12:30 30.63629 -77.53492 34992 ft 494 kts 31°
2026-04-25 12:31 30.69439 -77.49207 34990 ft 494 kts 31°
2026-04-25 12:31 30.75254 -77.44914 34990 ft 494 kts 31°
2026-04-25 12:32 30.81062 -77.40619 34990 ft 494 kts 31°
2026-04-25 12:32 30.86843 -77.36338 34989 ft 495 kts 31°
2026-04-25 12:33 30.92658 -77.32025 34987 ft 495 kts 31°
2026-04-25 12:33 30.98469 -77.27709 34987 ft 495 kts 31°
2026-04-25 12:34 31.04240 -77.23417 34986 ft 495 kts 32°
2026-04-25 12:34 31.10054 -77.19086 34986 ft 495 kts 32°
2026-04-25 12:35 31.15839 -77.14770 34987 ft 495 kts 32°
2026-04-25 12:35 31.21658 -77.10423 34989 ft 495 kts 32°
2026-04-25 12:36 31.27467 -77.06076 34994 ft 495 kts 32°
2026-04-25 12:36 31.33237 -77.01633 34992 ft 496 kts 37°
2026-04-25 12:37 31.38257 -76.96169 34987 ft 497 kts 48°
2026-04-25 12:37 31.42664 -76.89888 34989 ft 498 kts 50°
2026-04-25 12:38 31.47085 -76.83635 34983 ft 498 kts 50°
2026-04-25 12:38 31.51467 -76.77424 34982 ft 498 kts 50°
2026-04-25 12:39 31.55882 -76.71148 34985 ft 498 kts 50°
2026-04-25 12:39 31.60291 -76.64868 34983 ft 498 kts 50°
2026-04-25 12:40 31.64695 -76.58587 34986 ft 498 kts 50°
2026-04-25 12:40 31.69078 -76.52324 34986 ft 499 kts 50°
2026-04-25 12:41 31.73479 -76.46021 34987 ft 499 kts 50°
2026-04-25 12:41 31.77878 -76.39707 34981 ft 499 kts 50°
2026-04-25 12:42 31.82253 -76.33416 34983 ft 499 kts 50°
2026-04-25 12:42 31.86648 -76.27088 34984 ft 499 kts 50°
2026-04-25 12:43 31.91054 -76.20733 34991 ft 500 kts 50°
2026-04-25 12:43 31.97646 -76.11205 34991 ft 499 kts 50°
2026-04-25 12:44 32.02007 -76.04888 34986 ft 500 kts 50°
2026-04-25 12:45 32.08582 -75.95345 34988 ft 500 kts 50°
2026-04-25 12:45 32.15159 -75.85774 34986 ft 500 kts 50°
2026-04-25 12:46 32.19519 -75.79416 34985 ft 500 kts 50°
2026-04-25 12:46 32.23902 -75.73014 34986 ft 500 kts 50°
2026-04-25 12:47 32.28252 -75.66649 34986 ft 500 kts 50°
2026-04-25 12:47 32.32621 -75.60246 34984 ft 500 kts 50°
2026-04-25 12:48 32.36988 -75.53834 34991 ft 500 kts 50°
2026-04-25 12:48 32.41352 -75.47416 34991 ft 500 kts 50°
2026-04-25 12:49 32.45686 -75.41032 34990 ft 499 kts 50°
2026-04-25 12:49 32.50044 -75.34599 34991 ft 499 kts 50°
2026-04-25 12:50 32.54388 -75.28178 34990 ft 499 kts 50°
2026-04-25 12:50 32.58728 -75.21752 34986 ft 499 kts 50°
2026-04-25 12:51 32.62403 -75.16301 34986 ft 499 kts 50°
2026-04-25 12:51 32.66705 -75.09911 34986 ft 498 kts 50°
2026-04-25 12:52 32.71031 -75.03473 34984 ft 498 kts 50°
2026-04-25 12:52 32.75353 -74.97031 34985 ft 498 kts 50°
2026-04-25 12:53 32.79643 -74.90625 34987 ft 497 kts 50°
2026-04-25 12:53 32.83952 -74.84180 34983 ft 497 kts 50°
2026-04-25 12:54 32.88257 -74.77728 34982 ft 497 kts 50°
2026-04-25 12:54 32.92536 -74.71305 34986 ft 497 kts 50°
2026-04-25 12:55 32.96110 -74.65933 34983 ft 497 kts 50°
2026-04-25 12:55 33.01129 -74.58372 34986 ft 497 kts 50°
2026-04-25 12:56 33.05386 -74.51950 34986 ft 497 kts 50°
2026-04-25 12:56 33.09668 -74.45478 34982 ft 496 kts 50°
2026-04-25 12:57 33.13947 -74.38998 34983 ft 496 kts 50°
2026-04-25 12:57 33.18210 -74.32531 34983 ft 496 kts 51°
2026-04-25 12:58 33.22446 -74.26096 34982 ft 495 kts 50°
2026-04-25 12:58 33.26698 -74.19623 34986 ft 494 kts 50°
2026-04-25 12:59 33.30951 -74.13138 34977 ft 494 kts 50°
2026-04-25 12:59 33.35191 -74.06661 34976 ft 493 kts 50°
2026-04-25 13:00 33.37997 -74.02368 34975 ft 493 kts 50°
2026-04-25 13:00 33.43626 -73.93741 34976 ft 493 kts 50°
2026-04-25 13:01 33.47847 -73.87260 34973 ft 492 kts 50°
2026-04-25 13:01 33.52032 -73.80822 34974 ft 492 kts 50°
2026-04-25 13:02 33.56238 -73.74340 34972 ft 492 kts 50°
2026-04-25 13:02 33.60446 -73.67843 34975 ft 492 kts 50°
2026-04-25 13:03 33.64622 -73.61384 34971 ft 492 kts 50°
2026-04-25 13:03 33.68812 -73.54892 34974 ft 491 kts 50°
2026-04-25 13:04 33.73001 -73.48389 34974 ft 491 kts 50°
2026-04-25 13:04 33.77161 -73.41922 34971 ft 491 kts 50°
2026-04-25 13:05 33.81340 -73.35412 34971 ft 491 kts 50°
2026-04-25 13:05 33.85520 -73.28889 34976 ft 492 kts 50°
2026-04-25 13:06 33.89697 -73.22360 34977 ft 492 kts 50°
2026-04-25 13:06 33.93874 -73.15818 34976 ft 492 kts 51°
2026-04-25 13:07 33.98020 -73.09313 34975 ft 492 kts 51°
2026-04-25 13:07 34.02209 -73.02729 34974 ft 493 kts 51°
2026-04-25 13:08 34.06379 -72.96163 34978 ft 493 kts 51°
2026-04-25 13:08 34.10532 -72.89612 34979 ft 494 kts 51°
2026-04-25 13:09 34.14726 -72.82982 34976 ft 495 kts 51°
2026-04-25 13:09 34.18877 -72.76411 34976 ft 496 kts 51°
2026-04-25 13:10 34.23064 -72.69769 34980 ft 496 kts 51°
2026-04-25 13:10 34.27252 -72.63114 34982 ft 497 kts 51°
2026-04-25 13:11 34.31436 -72.56452 34984 ft 497 kts 51°
2026-04-25 13:11 34.35623 -72.49774 34988 ft 498 kts 51°
2026-04-25 13:12 34.39806 -72.43089 34988 ft 498 kts 50°
2026-04-25 13:12 34.42578 -72.38653 34985 ft 498 kts 50°
2026-04-25 13:13 34.48143 -72.29729 34988 ft 498 kts 50°
2026-04-25 13:13 34.52320 -72.23016 34986 ft 498 kts 51°
2026-04-25 13:14 34.56493 -72.16296 34983 ft 498 kts 51°
2026-04-25 13:14 34.60635 -72.09615 34986 ft 499 kts 50°
2026-04-25 13:15 34.64809 -72.02869 34989 ft 499 kts 50°
2026-04-25 13:15 34.67606 -71.98341 34992 ft 499 kts 50°
2026-04-25 13:16 34.72457 -71.90476 35002 ft 500 kts 50°
2026-04-25 13:16 34.76628 -71.83697 35004 ft 501 kts 50°
2026-04-25 13:17 34.80804 -71.76896 35007 ft 501 kts 50°
2026-04-25 13:17 34.84948 -71.70138 35004 ft 500 kts 50°
2026-04-25 13:18 34.89106 -71.63344 35000 ft 499 kts 50°
2026-04-25 13:18 34.93230 -71.56591 35005 ft 499 kts 50°
2026-04-25 13:19 34.97377 -71.49787 35003 ft 498 kts 50°
2026-04-25 13:19 35.00813 -71.44139 35006 ft 498 kts 50°
2026-04-25 13:20 35.05619 -71.36227 35004 ft 498 kts 50°
2026-04-25 13:20 35.09743 -71.29421 35007 ft 498 kts 50°
2026-04-25 13:21 35.13842 -71.22646 35013 ft 498 kts 50°
2026-04-25 13:21 35.17963 -71.15818 35019 ft 498 kts 50°
2026-04-25 13:22 35.22062 -71.09016 35020 ft 498 kts 50°
2026-04-25 13:23 35.28234 -70.98747 35028 ft 499 kts 50°
2026-04-25 13:23 35.32320 -70.91932 35035 ft 499 kts 50°
2026-04-25 13:24 35.36431 -70.85063 35041 ft 498 kts 49°
2026-04-25 13:24 35.40535 -70.78192 35039 ft 498 kts 49°
2026-04-25 13:25 35.44602 -70.71369 35029 ft 498 kts 49°
2026-04-25 13:25 35.48682 -70.64511 35034 ft 497 kts 49°
2026-04-25 13:26 35.52761 -70.57641 35039 ft 497 kts 49°
2026-04-25 13:26 35.56833 -70.50769 35045 ft 496 kts 49°
2026-04-25 13:27 35.60898 -70.43896 35046 ft 496 kts 49°
2026-04-25 13:27 35.64928 -70.37067 35047 ft 495 kts 49°
2026-04-25 13:28 35.68974 -70.30199 35049 ft 495 kts 49°
2026-04-25 13:28 35.73012 -70.23331 35044 ft 495 kts 49°
2026-04-25 13:29 35.77021 -70.16499 35045 ft 495 kts 49°
2026-04-25 13:29 35.81051 -70.09617 35052 ft 495 kts 49°
2026-04-25 13:30 35.87103 -69.99257 35053 ft 496 kts 49°
2026-04-25 13:31 35.93157 -69.88863 35062 ft 496 kts 48°
2026-04-25 13:31 35.97166 -69.81961 35063 ft 497 kts 48°
2026-04-25 13:32 36.01200 -69.75004 35063 ft 497 kts 48°
2026-04-25 13:32 36.05203 -69.68085 35064 ft 497 kts 48°
2026-04-25 13:33 36.09238 -69.61098 35073 ft 497 kts 48°
2026-04-25 13:33 36.13260 -69.54117 35080 ft 498 kts 48°
2026-04-25 13:34 36.17252 -69.47176 35071 ft 498 kts 48°
2026-04-25 13:34 36.21274 -69.40169 35074 ft 498 kts 48°
2026-04-25 13:35 36.25288 -69.33160 35074 ft 498 kts 48°
2026-04-25 13:35 36.29276 -69.26183 35071 ft 498 kts 47°
2026-04-25 13:36 36.33285 -69.19155 35068 ft 498 kts 47°
2026-04-25 13:36 36.37286 -69.12127 35068 ft 498 kts 47°
2026-04-25 13:37 36.41257 -69.05136 35068 ft 498 kts 47°
2026-04-25 13:37 36.45259 -68.98078 35067 ft 498 kts 47°
2026-04-25 13:38 36.49229 -68.91061 35071 ft 499 kts 47°
2026-04-25 13:38 36.53223 -68.83987 35074 ft 499 kts 47°
2026-04-25 13:39 36.57215 -68.76902 35070 ft 500 kts 47°
2026-04-25 13:39 36.61190 -68.69831 35073 ft 501 kts 47°
2026-04-25 13:40 36.65187 -68.62707 35074 ft 501 kts 47°
2026-04-25 13:40 36.69183 -68.55569 35076 ft 502 kts 47°
2026-04-25 13:41 36.73152 -68.48465 35077 ft 502 kts 47°
2026-04-25 13:41 36.77159 -68.41282 35077 ft 502 kts 47°
2026-04-25 13:42 36.81120 -68.34170 35076 ft 502 kts 47°
2026-04-25 13:42 36.85109 -68.26997 35075 ft 502 kts 47°
2026-04-25 13:43 36.89097 -68.19809 35076 ft 502 kts 47°
2026-04-25 13:43 36.93077 -68.12621 35063 ft 502 kts 46°
2026-04-25 13:44 36.97018 -68.05473 35067 ft 504 kts 49°
2026-04-25 13:44 36.98690 -68.01558 35066 ft 517 kts 59°
2026-04-25 13:44 36.99819 -67.97218 35064 ft 530 kts 70°
2026-04-25 13:44 37.00317 -67.92600 35062 ft 541 kts 81°
2026-04-25 13:45 37.00450 -67.87893 35064 ft 543 kts 82°
2026-04-25 13:45 37.00702 -67.78431 35060 ft 543 kts 81°
2026-04-25 13:46 37.00990 -67.68972 35060 ft 544 kts 81°
2026-04-25 13:46 37.01285 -67.59568 35060 ft 545 kts 81°
2026-04-25 13:47 37.01575 -67.50072 35066 ft 546 kts 81°
2026-04-25 13:47 37.01852 -67.40556 35063 ft 547 kts 81°
2026-04-25 13:48 37.02120 -67.31081 35065 ft 548 kts 81°
2026-04-25 13:48 37.02382 -67.21524 35058 ft 549 kts 81°
2026-04-25 13:49 37.02636 -67.11955 35057 ft 550 kts 81°
2026-04-25 13:49 37.02883 -67.02372 35057 ft 550 kts 82°
2026-04-25 13:50 37.03121 -66.92840 35055 ft 551 kts 82°
2026-04-25 13:50 37.03354 -66.83238 35054 ft 552 kts 82°
2026-04-25 13:51 37.03579 -66.73617 35047 ft 552 kts 82°
2026-04-25 13:51 37.03795 -66.64041 35044 ft 553 kts 82°
2026-04-25 13:52 37.04005 -66.54383 35043 ft 554 kts 81°
2026-04-25 13:52 37.04207 -66.44730 35042 ft 555 kts 81°
2026-04-25 13:53 37.04402 -66.35050 35039 ft 556 kts 81°
2026-04-25 13:53 37.04590 -66.25350 35036 ft 557 kts 81°
2026-04-25 13:54 37.04769 -66.15641 35034 ft 559 kts 81°
2026-04-25 13:54 37.04941 -66.05932 35034 ft 559 kts 81°
2026-04-25 13:55 37.05104 -65.96192 35025 ft 559 kts 81°
2026-04-25 13:55 37.05262 -65.86420 35018 ft 560 kts 81°
2026-04-25 13:56 37.05411 -65.76656 35011 ft 561 kts 81°
2026-04-25 13:56 37.05551 -65.66939 35015 ft 562 kts 81°
2026-04-25 13:57 37.05685 -65.57131 35014 ft 563 kts 81°
2026-04-25 13:57 37.05810 -65.47368 35007 ft 564 kts 81°
2026-04-25 13:58 37.05927 -65.37521 35002 ft 564 kts 82°
2026-04-25 13:58 37.06037 -65.27683 35003 ft 565 kts 82°
2026-04-25 13:59 37.06139 -65.17876 35000 ft 566 kts 82°
2026-04-25 13:59 37.06233 -65.07997 34997 ft 567 kts 82°
2026-04-25 14:00 37.06304 -64.99786 34995 ft 568 kts 83°
2026-04-25 14:00 37.06395 -64.88272 34996 ft 569 kts 83°
2026-04-25 14:01 37.06453 -64.80016 34998 ft 569 kts 83°
2026-04-25 14:01 37.06516 -64.70090 34993 ft 570 kts 83°
2026-04-25 14:02 37.06570 -64.60154 34984 ft 570 kts 84°
2026-04-25 14:02 37.06616 -64.50207 34985 ft 571 kts 84°
2026-04-25 14:03 37.06654 -64.40333 34976 ft 571 kts 84°
2026-04-25 14:03 37.06683 -64.30374 34976 ft 571 kts 84°
2026-04-25 14:04 37.06704 -64.20414 34969 ft 572 kts 84°
2026-04-25 14:04 37.06717 -64.10490 34960 ft 572 kts 85°
2026-04-25 14:05 37.06722 -64.00512 34960 ft 573 kts 85°
2026-04-25 14:05 37.06718 -63.90523 34958 ft 573 kts 85°
2026-04-25 14:06 37.06706 -63.80520 34960 ft 574 kts 85°
2026-04-25 14:06 37.06686 -63.70793 34949 ft 575 kts 85°
2026-04-25 14:07 37.06657 -63.60741 34949 ft 576 kts 85°
2026-04-25 14:07 37.06620 -63.50705 34950 ft 576 kts 85°
2026-04-25 14:08 37.06575 -63.40726 34934 ft 577 kts 86°
2026-04-25 14:08 37.06520 -63.30658 34942 ft 578 kts 86°
2026-04-25 14:09 37.06457 -63.20570 34932 ft 578 kts 86°
2026-04-25 14:09 37.06386 -63.10551 34934 ft 579 kts 86°
2026-04-25 14:10 37.06306 -63.00433 34924 ft 580 kts 86°
2026-04-25 14:10 37.06217 -62.90320 34922 ft 581 kts 87°
2026-04-25 14:11 37.06120 -62.80256 34915 ft 581 kts 87°
2026-04-25 14:11 37.06014 -62.70131 34913 ft 582 kts 87°
2026-04-25 14:12 37.05900 -62.60031 34905 ft 582 kts 87°
2026-04-25 14:12 37.05776 -62.49870 34899 ft 583 kts 88°
2026-04-25 14:13 37.05644 -62.39709 34902 ft 584 kts 88°
2026-04-25 14:13 37.05502 -62.29520 34900 ft 584 kts 88°
2026-04-25 14:14 37.05353 -62.19404 34897 ft 585 kts 88°
2026-04-25 14:14 37.05194 -62.09218 34880 ft 586 kts 88°
2026-04-25 14:15 37.05026 -61.98987 34878 ft 587 kts 88°
2026-04-25 14:15 37.04849 -61.88751 34880 ft 587 kts 88°
2026-04-25 14:16 37.04663 -61.78534 34873 ft 587 kts 89°
2026-04-25 14:16 37.04470 -61.68357 34869 ft 587 kts 89°
2026-04-25 14:17 37.04266 -61.58125 34861 ft 587 kts 89°
2026-04-25 14:17 37.04054 -61.47887 34849 ft 587 kts 89°
2026-04-25 14:18 37.03833 -61.37665 34842 ft 587 kts 89°
2026-04-25 14:18 37.03604 -61.27483 34841 ft 587 kts 90°
2026-04-25 14:19 37.03366 -61.17270 34834 ft 586 kts 90°
2026-04-25 14:19 37.03121 -61.07118 34831 ft 586 kts 90°
2026-04-25 14:20 37.02865 -60.96917 34824 ft 586 kts 90°
2026-04-25 14:20 37.02601 -60.86712 34821 ft 585 kts 90°
2026-04-25 14:21 37.02330 -60.76581 34812 ft 585 kts 90°
2026-04-25 14:21 37.02049 -60.66394 34813 ft 585 kts 91°
2026-04-25 14:22 37.01759 -60.56178 34808 ft 585 kts 91°
2026-04-25 14:22 37.01462 -60.46055 34804 ft 585 kts 91°
2026-04-25 14:23 37.01155 -60.35864 34803 ft 585 kts 91°
2026-04-25 14:23 37.00843 -60.25689 34801 ft 585 kts 91°
2026-04-25 14:24 37.00527 -60.15518 34794 ft 585 kts 92°
2026-04-25 14:24 37.00202 -60.05325 34791 ft 585 kts 92°
2026-04-25 14:25 37.00514 -59.95261 34791 ft 582 kts 78°
2026-04-25 14:25 37.01996 -59.85307 34781 ft 581 kts 77°
2026-04-25 14:26 37.03485 -59.75355 34780 ft 582 kts 77°
2026-04-25 14:26 37.04911 -59.65411 34774 ft 582 kts 78°
2026-04-25 14:27 37.06323 -59.55410 34771 ft 583 kts 78°
2026-04-25 14:27 37.07726 -59.45404 34771 ft 583 kts 78°
2026-04-25 14:28 37.09118 -59.35387 34768 ft 583 kts 78°
2026-04-25 14:28 37.10499 -59.25363 34759 ft 584 kts 78°
2026-04-25 14:29 37.11869 -59.15345 34760 ft 584 kts 78°
2026-04-25 14:29 37.13226 -59.05362 34754 ft 584 kts 79°
2026-04-25 14:30 37.14586 -58.95288 34754 ft 584 kts 79°
2026-04-25 14:30 37.16601 -58.80243 34754 ft 584 kts 79°
2026-04-25 14:31 37.17940 -58.70164 34752 ft 585 kts 79°
2026-04-25 14:31 37.19267 -58.60099 34745 ft 585 kts 79°
2026-04-25 14:32 37.20580 -58.50084 34745 ft 585 kts 79°
2026-04-25 14:32 37.21891 -58.40009 34741 ft 585 kts 80°
2026-04-25 14:33 37.23194 -58.29922 34741 ft 585 kts 80°
2026-04-25 14:33 37.24488 -58.19842 34736 ft 585 kts 80°
2026-04-25 14:34 37.25769 -58.09794 34736 ft 585 kts 80°
2026-04-25 14:34 37.27047 -57.99693 34730 ft 586 kts 80°
2026-04-25 14:35 37.28318 -57.89577 34731 ft 586 kts 81°
2026-04-25 14:35 37.29583 -57.79444 34730 ft 586 kts 81°
2026-04-25 14:36 37.30837 -57.69317 34730 ft 586 kts 81°
2026-04-25 14:36 37.32076 -57.59243 34728 ft 586 kts 81°
2026-04-25 14:37 37.33313 -57.49115 34723 ft 586 kts 81°
2026-04-25 14:37 37.34543 -57.38964 34727 ft 586 kts 81°
2026-04-25 14:38 37.35766 -57.28802 34722 ft 586 kts 81°
2026-04-25 14:38 37.36969 -57.18727 34720 ft 586 kts 81°
2026-04-25 14:39 37.38173 -57.08566 34719 ft 586 kts 82°
2026-04-25 14:39 37.39361 -56.98467 34714 ft 586 kts 82°
2026-04-25 14:40 37.40548 -56.88299 34714 ft 586 kts 82°
2026-04-25 14:40 37.41726 -56.78136 34710 ft 586 kts 82°
2026-04-25 14:41 37.42895 -56.67964 34713 ft 586 kts 82°
2026-04-25 14:41 37.44047 -56.57869 34711 ft 587 kts 82°
2026-04-25 14:42 37.44818 -56.51070 34716 ft 586 kts 82°
2026-04-25 14:42 37.46340 -56.37526 34719 ft 586 kts 82°
2026-04-25 14:43 37.47474 -56.27347 34715 ft 586 kts 82°
2026-04-25 14:43 37.48599 -56.17174 34710 ft 586 kts 83°
2026-04-25 14:44 37.49708 -56.07060 34716 ft 586 kts 83°
2026-04-25 14:44 37.50813 -55.96891 34715 ft 586 kts 83°
2026-04-25 14:45 37.51913 -55.86697 34714 ft 586 kts 83°
2026-04-25 14:45 37.52994 -55.76587 34706 ft 586 kts 83°
2026-04-25 14:46 37.54077 -55.66376 34712 ft 585 kts 83°
2026-04-25 14:46 37.54968 -55.57915 34702 ft 585 kts 83°
2026-04-25 14:47 37.55853 -55.49442 34710 ft 585 kts 83°
2026-04-25 14:47 37.57081 -55.37599 34699 ft 585 kts 83°
2026-04-25 14:48 37.58126 -55.27417 34699 ft 585 kts 84°
2026-04-25 14:48 37.59157 -55.17286 34703 ft 585 kts 84°
2026-04-25 14:49 37.60185 -55.07096 34692 ft 585 kts 84°
2026-04-25 14:49 37.61205 -54.96900 34706 ft 585 kts 84°
2026-04-25 14:50 37.62210 -54.86760 34709 ft 585 kts 84°
2026-04-25 14:50 37.63212 -54.76562 34707 ft 584 kts 84°
2026-04-25 14:51 37.64203 -54.66385 34708 ft 584 kts 84°
2026-04-25 14:51 37.65185 -54.56206 34708 ft 584 kts 84°
2026-04-25 14:52 37.66158 -54.46023 34705 ft 583 kts 84°
2026-04-25 14:52 37.66956 -54.37604 34701 ft 583 kts 84°
2026-04-25 14:53 37.68073 -54.25711 34702 ft 584 kts 84°
2026-04-25 14:53 37.69018 -54.15539 34702 ft 584 kts 84°
2026-04-25 14:54 37.69957 -54.05338 34704 ft 584 kts 85°
2026-04-25 14:54 37.70888 -53.95137 34706 ft 585 kts 85°
2026-04-25 14:55 37.71805 -53.84977 34712 ft 585 kts 85°
2026-04-25 14:55 37.72720 -53.74744 34709 ft 585 kts 85°
2026-04-25 14:56 37.73626 -53.64506 34710 ft 586 kts 85°
2026-04-25 14:56 37.74517 -53.54339 34711 ft 585 kts 85°
2026-04-25 14:57 37.75408 -53.44075 34715 ft 585 kts 85°
2026-04-25 14:57 37.76283 -53.33883 34712 ft 585 kts 85°
2026-04-25 14:58 37.77151 -53.23673 34715 ft 585 kts 85°
2026-04-25 14:58 37.78012 -53.13433 34717 ft 585 kts 85°
2026-04-25 14:59 37.78863 -53.03203 34719 ft 585 kts 85°
2026-04-25 14:59 37.79705 -52.92981 34720 ft 584 kts 85°
2026-04-25 15:00 37.80539 -52.82739 34716 ft 584 kts 86°
2026-04-25 15:00 37.81359 -52.72565 34719 ft 584 kts 86°
2026-04-25 15:01 37.82173 -52.62341 34719 ft 584 kts 86°
2026-04-25 15:01 37.82979 -52.52118 34722 ft 584 kts 86°
2026-04-25 15:02 37.83778 -52.41868 34721 ft 584 kts 86°
2026-04-25 15:02 37.84561 -52.31709 34720 ft 584 kts 86°
2026-04-25 15:03 37.85341 -52.21460 34724 ft 584 kts 87°
2026-04-25 15:03 37.86112 -52.11221 34722 ft 583 kts 87°
2026-04-25 15:04 37.86870 -52.01037 34721 ft 584 kts 87°
2026-04-25 15:04 37.87623 -51.90792 34716 ft 584 kts 87°
2026-04-25 15:05 37.88368 -51.80534 34719 ft 585 kts 88°
2026-04-25 15:06 37.89469 -51.65153 34720 ft 586 kts 88°
2026-04-25 15:06 37.90190 -51.54919 34726 ft 587 kts 88°
2026-04-25 15:07 37.90907 -51.44598 34730 ft 588 kts 88°
2026-04-25 15:07 37.91618 -51.34246 34734 ft 589 kts 88°
2026-04-25 15:08 37.92319 -51.23902 34732 ft 589 kts 88°
2026-04-25 15:08 37.93009 -51.13602 34732 ft 590 kts 89°
2026-04-25 15:09 37.93694 -51.03219 34726 ft 590 kts 89°
2026-04-25 15:09 37.94699 -50.87729 34725 ft 590 kts 89°
2026-04-25 15:10 37.95361 -50.77362 34720 ft 590 kts 89°
2026-04-25 15:11 37.96338 -50.61773 34722 ft 591 kts 89°
2026-04-25 15:11 37.96979 -50.51364 34722 ft 592 kts 89°
2026-04-25 15:12 37.97927 -50.35759 34729 ft 593 kts 89°
2026-04-25 15:12 37.98348 -50.28779 34736 ft 594 kts 89°
2026-04-25 15:13 37.99483 -50.09628 34731 ft 594 kts 89°
2026-04-25 15:14 38.00086 -49.99227 34722 ft 594 kts 89°
2026-04-25 15:14 38.01368 -49.88814 34726 ft 598 kts 81°
2026-04-25 15:15 38.03011 -49.78467 34723 ft 597 kts 81°
2026-04-25 15:15 38.04530 -49.68170 34727 ft 597 kts 82°
2026-04-25 15:16 38.06009 -49.57772 34728 ft 597 kts 82°
2026-04-25 15:16 38.08187 -49.42269 34727 ft 597 kts 82°
2026-04-25 15:17 38.10345 -49.26709 34728 ft 596 kts 82°
2026-04-25 15:18 38.11768 -49.16338 34721 ft 595 kts 82°
2026-04-25 15:18 38.13880 -49.00820 34802 ft 598 kts 83°
2026-04-25 15:19 38.14582 -48.95630 35252 ft 596 kts 82°
2026-04-25 15:19 38.14818 -48.93876 35430 ft 594 kts 82°
2026-04-25 15:19 38.15973 -48.85292 36230 ft 590 kts 82°
2026-04-25 15:19 38.16661 -48.80144 36628 ft 590 kts 82°
2026-04-25 15:20 38.18020 -48.69941 36715 ft 584 kts 82°
2026-04-25 15:20 38.19367 -48.59740 36719 ft 586 kts 82°
2026-04-25 15:21 38.20711 -48.49505 36717 ft 585 kts 82°
2026-04-25 15:21 38.22043 -48.39286 36720 ft 585 kts 82°
2026-04-25 15:22 38.23367 -48.29055 36719 ft 585 kts 82°
2026-04-25 15:22 38.24673 -48.18901 36720 ft 585 kts 82°
2026-04-25 15:23 38.25978 -48.08668 36719 ft 584 kts 82°
2026-04-25 15:23 38.27273 -47.98454 36719 ft 584 kts 82°
2026-04-25 15:24 38.28555 -47.88262 36718 ft 585 kts 82°
2026-04-25 15:24 38.29408 -47.81437 36716 ft 583 kts 82°
2026-04-25 15:25 38.31096 -47.67841 36717 ft 583 kts 82°
2026-04-25 15:25 38.32344 -47.57701 36718 ft 583 kts 82°
2026-04-25 15:26 38.33593 -47.47483 36715 ft 582 kts 82°
2026-04-25 15:26 38.34829 -47.37284 36711 ft 581 kts 82°
2026-04-25 15:27 38.36051 -47.27136 36711 ft 581 kts 82°
2026-04-25 15:28 38.37870 -47.11876 36708 ft 580 kts 82°
2026-04-25 15:28 38.39072 -47.01697 36707 ft 579 kts 82°
2026-04-25 15:29 38.40256 -46.91594 36707 ft 579 kts 82°
2026-04-25 15:29 38.41438 -46.81431 36713 ft 578 kts 82°
2026-04-25 15:30 38.42610 -46.71267 36711 ft 577 kts 83°
2026-04-25 15:30 38.43575 -46.62843 36710 ft 577 kts 83°
2026-04-25 15:31 38.44915 -46.51058 36705 ft 576 kts 83°
2026-04-25 15:31 38.46054 -46.40955 36706 ft 575 kts 83°
2026-04-25 15:32 38.46997 -46.32526 36700 ft 575 kts 83°
2026-04-25 15:32 38.48120 -46.22414 36702 ft 575 kts 83°
2026-04-25 15:33 38.49787 -46.07251 36695 ft 574 kts 83°
2026-04-25 15:33 38.50886 -45.97156 36694 ft 574 kts 83°
2026-04-25 15:34 38.51976 -45.87049 36698 ft 574 kts 83°
2026-04-25 15:34 38.52876 -45.78655 36695 ft 574 kts 83°
2026-04-25 15:35 38.54658 -45.61842 36690 ft 573 kts 84°
2026-04-25 15:36 38.56237 -45.46743 36690 ft 573 kts 84°
2026-04-25 15:36 38.57284 -45.36633 36687 ft 573 kts 84°
2026-04-25 15:37 38.58322 -45.26519 36692 ft 572 kts 84°
2026-04-25 15:37 38.59344 -45.16469 36693 ft 572 kts 84°
2026-04-25 15:38 38.60364 -45.06355 36681 ft 572 kts 84°
2026-04-25 15:38 38.61366 -44.96322 36684 ft 572 kts 84°
2026-04-25 15:39 38.62368 -44.86209 36681 ft 572 kts 84°
2026-04-25 15:39 38.63363 -44.76073 36684 ft 572 kts 84°
2026-04-25 15:40 38.64181 -44.67671 36683 ft 571 kts 84°
2026-04-25 15:40 38.65313 -44.55938 36684 ft 571 kts 84°
2026-04-25 15:41 38.66278 -44.45829 36689 ft 571 kts 84°
2026-04-25 15:41 38.67230 -44.35774 36692 ft 571 kts 84°
2026-04-25 15:42 38.68177 -44.25672 36694 ft 571 kts 84°
2026-04-25 15:42 38.69114 -44.15578 36694 ft 571 kts 85°
2026-04-25 15:43 38.70040 -44.05511 36702 ft 571 kts 85°
2026-04-25 15:43 38.70960 -43.95415 36708 ft 571 kts 85°
2026-04-25 15:44 38.71871 -43.85319 36710 ft 570 kts 85°
2026-04-25 15:44 38.72768 -43.75280 36715 ft 570 kts 85°
2026-04-25 15:45 38.73660 -43.65197 36719 ft 570 kts 85°
2026-04-25 15:45 38.74397 -43.56790 36719 ft 569 kts 85°
2026-04-25 15:46 38.75420 -43.45000 36722 ft 569 kts 85°
2026-04-25 15:46 38.76280 -43.34976 36722 ft 569 kts 85°
2026-04-25 15:47 38.77137 -43.24885 36730 ft 568 kts 85°
2026-04-25 15:47 38.77984 -43.14808 36728 ft 568 kts 85°
2026-04-25 15:48 38.78820 -43.04758 36731 ft 567 kts 85°
2026-04-25 15:48 38.79644 -42.94749 36744 ft 567 kts 85°
2026-04-25 15:49 38.80465 -42.84668 36746 ft 566 kts 85°
2026-04-25 15:49 38.81270 -42.74675 36748 ft 566 kts 85°
2026-04-25 15:50 38.82070 -42.64628 36751 ft 565 kts 85°
2026-04-25 15:50 38.82858 -42.54635 36753 ft 565 kts 85°
2026-04-25 15:51 38.83513 -42.46235 36760 ft 564 kts 85°
2026-04-25 15:51 38.84413 -42.34572 36763 ft 564 kts 85°
2026-04-25 15:52 38.85176 -42.24557 36767 ft 563 kts 86°
2026-04-25 15:52 38.85926 -42.14596 36767 ft 563 kts 86°
2026-04-25 15:53 38.86672 -42.04584 36776 ft 563 kts 86°
2026-04-25 15:53 38.87408 -41.94582 36786 ft 562 kts 86°
2026-04-25 15:54 38.88132 -41.84626 36774 ft 562 kts 86°
2026-04-25 15:54 38.88851 -41.74624 36794 ft 562 kts 86°
2026-04-25 15:55 38.89558 -41.64660 36791 ft 562 kts 86°
2026-04-25 15:55 38.90258 -41.54671 36798 ft 561 kts 86°
2026-04-25 15:56 38.90948 -41.44716 36802 ft 560 kts 86°
2026-04-25 15:56 38.91630 -41.34743 36804 ft 559 kts 86°
2026-04-25 15:57 38.92303 -41.24780 36810 ft 559 kts 86°
2026-04-25 15:57 38.92964 -41.14877 36815 ft 558 kts 86°
2026-04-25 15:58 38.93618 -41.04935 36816 ft 557 kts 86°
2026-04-25 15:58 38.94261 -40.95044 36821 ft 556 kts 86°
2026-04-25 15:59 38.94895 -40.85147 36826 ft 556 kts 86°
2026-04-25 15:59 38.95522 -40.75236 36830 ft 555 kts 87°
2026-04-25 16:00 38.95933 -40.68672 36832 ft 555 kts 87°
2026-04-25 16:00 38.96745 -40.55500 36840 ft 554 kts 87°
2026-04-25 16:01 38.97342 -40.45674 36849 ft 553 kts 87°
2026-04-25 16:01 38.97936 -40.35819 36855 ft 552 kts 87°
2026-04-25 16:02 38.98525 -40.25957 36856 ft 552 kts 87°
2026-04-25 16:02 38.99104 -40.16155 36858 ft 551 kts 87°
2026-04-25 16:03 38.99676 -40.06303 36864 ft 551 kts 87°
2026-04-25 16:03 39.00106 -39.96535 36866 ft 549 kts 90°
2026-04-25 16:04 39.00477 -39.86695 36886 ft 551 kts 88°
2026-04-25 16:04 39.00929 -39.76851 36886 ft 551 kts 88°
2026-04-25 16:05 39.01347 -39.66977 36871 ft 551 kts 88°
2026-04-25 16:06 39.01939 -39.52250 36884 ft 549 kts 89°
2026-04-25 16:06 39.02320 -39.42490 36885 ft 549 kts 89°
2026-04-25 16:07 39.02690 -39.32676 36887 ft 548 kts 89°
2026-04-25 16:07 39.03048 -39.22894 36890 ft 547 kts 89°
2026-04-25 16:08 39.03396 -39.13161 36890 ft 546 kts 89°
2026-04-25 16:08 39.03737 -39.03386 36894 ft 545 kts 89°
2026-04-25 16:09 39.04067 -38.93703 36901 ft 545 kts 89°
2026-04-25 16:09 39.04392 -38.83927 36904 ft 545 kts 89°
2026-04-25 16:10 39.04709 -38.74158 36905 ft 546 kts 89°
2026-04-25 16:10 39.05015 -38.64455 36927 ft 546 kts 89°
2026-04-25 16:11 39.05317 -38.54650 36924 ft 546 kts 89°
2026-04-25 16:11 39.05608 -38.44890 36938 ft 546 kts 89°
2026-04-25 16:12 39.05891 -38.35172 36936 ft 545 kts 89°
2026-04-25 16:12 39.06167 -38.25410 36938 ft 545 kts 89°
2026-04-25 16:13 39.06432 -38.15734 36949 ft 544 kts 89°
2026-04-25 16:13 39.06691 -38.06000 36951 ft 543 kts 89°
2026-04-25 16:14 39.06941 -37.96273 36943 ft 543 kts 89°
2026-04-25 16:14 39.07184 -37.86534 36942 ft 543 kts 89°
2026-04-25 16:15 39.07416 -37.76862 36949 ft 542 kts 89°
2026-04-25 16:15 39.07604 -37.68803 36967 ft 542 kts 89°
2026-04-25 16:16 39.07858 -37.57520 36958 ft 542 kts 89°
2026-04-25 16:16 39.08034 -37.49391 36967 ft 541 kts 89°
2026-04-25 16:17 39.08236 -37.39750 36968 ft 541 kts 89°
2026-04-25 16:17 39.08430 -37.30042 36969 ft 541 kts 89°
2026-04-25 16:18 39.08616 -37.20425 36978 ft 540 kts 89°
2026-04-25 16:18 39.08794 -37.10741 36993 ft 539 kts 89°
2026-04-25 16:19 39.08964 -37.01082 36997 ft 539 kts 89°
2026-04-25 16:19 39.09125 -36.91490 37006 ft 538 kts 89°
2026-04-25 16:20 39.09353 -36.77017 36990 ft 537 kts 90°
2026-04-25 16:21 39.09561 -36.62634 36991 ft 537 kts 90°
2026-04-25 16:21 39.09691 -36.53015 36997 ft 536 kts 90°
2026-04-25 16:22 39.09812 -36.43451 37003 ft 536 kts 90°
2026-04-25 16:22 39.09926 -36.33834 37017 ft 535 kts 90°
2026-04-25 16:23 39.10032 -36.24279 37029 ft 535 kts 90°
2026-04-25 16:23 39.10130 -36.14666 37028 ft 535 kts 90°
2026-04-25 16:24 39.10219 -36.05142 37018 ft 535 kts 90°
2026-04-25 16:24 39.10301 -35.95545 37022 ft 535 kts 90°
2026-04-25 16:25 39.10375 -35.86021 37026 ft 535 kts 90°
2026-04-25 16:25 39.10442 -35.76428 37026 ft 534 kts 90°
2026-04-25 16:26 39.10500 -35.66842 37029 ft 534 kts 90°
2026-04-25 16:26 39.10526 -35.62049 36892 ft 534 kts 90°
2026-04-25 16:26 39.10551 -35.57282 37036 ft 532 kts 90°
2026-04-25 16:27 39.10594 -35.47772 37040 ft 534 kts 90°
2026-04-25 16:27 39.10629 -35.38181 37059 ft 535 kts 90°
2026-04-25 16:28 39.10656 -35.28644 37059 ft 535 kts 90°
2026-04-25 16:28 39.10676 -35.19055 37065 ft 535 kts 90°
2026-04-25 16:29 39.10687 -35.09517 37062 ft 535 kts 90°
2026-04-25 16:29 39.10691 -34.99918 37066 ft 534 kts 90°
2026-04-25 16:30 39.10687 -34.90338 37062 ft 534 kts 90°
2026-04-25 16:30 39.10678 -34.80830 37054 ft 534 kts 90°
2026-04-25 16:31 39.10657 -34.71246 37061 ft 534 kts 90°
2026-04-25 16:31 39.10629 -34.61702 37057 ft 532 kts 90°
2026-04-25 16:32 39.10593 -34.52206 37061 ft 532 kts 90°
2026-04-25 16:32 39.10551 -34.42663 37059 ft 532 kts 90°
2026-04-25 16:33 39.10500 -34.33131 37067 ft 532 kts 90°
2026-04-25 16:33 39.10442 -34.23605 37069 ft 531 kts 90°
2026-04-25 16:34 39.10376 -34.14141 37063 ft 531 kts 90°
2026-04-25 16:34 39.10302 -34.04616 37065 ft 531 kts 90°
2026-04-25 16:35 39.10221 -33.95113 37067 ft 531 kts 90°
2026-04-25 16:35 39.10132 -33.85654 37067 ft 531 kts 90°
2026-04-25 16:36 39.10036 -33.76133 37061 ft 531 kts 90°
2026-04-25 16:36 39.09931 -33.66608 37070 ft 531 kts 90°
2026-04-25 16:37 39.09819 -33.57153 37081 ft 531 kts 90°
2026-04-25 16:37 39.09699 -33.47618 37078 ft 531 kts 90°
2026-04-25 16:38 39.09572 -33.38154 37083 ft 531 kts 90°
2026-04-25 16:38 39.09436 -33.28620 37075 ft 531 kts 90°
2026-04-25 16:39 39.09293 -33.19107 37076 ft 531 kts 90°
2026-04-25 16:39 39.09143 -33.09654 37081 ft 531 kts 90°
2026-04-25 16:40 39.08985 -33.00149 37090 ft 530 kts 90°
2026-04-25 16:40 39.08819 -32.90649 37081 ft 530 kts 90°
2026-04-25 16:41 39.08646 -32.81212 37092 ft 530 kts 90°
2026-04-25 16:41 39.08371 -32.66960 37092 ft 529 kts 90°
2026-04-25 16:42 39.08179 -32.57531 37089 ft 529 kts 90°
2026-04-25 16:42 39.07979 -32.48055 37084 ft 528 kts 90°
2026-04-25 16:43 39.07773 -32.38660 37092 ft 528 kts 90°
2026-04-25 16:43 39.07558 -32.29205 37090 ft 528 kts 90°
2026-04-25 16:44 39.07335 -32.19742 37089 ft 527 kts 90°
2026-04-25 16:44 39.07105 -32.10302 37089 ft 527 kts 90°
2026-04-25 16:45 39.06869 -32.00923 37090 ft 527 kts 90°
2026-04-25 16:45 39.06623 -31.91473 37095 ft 526 kts 90°
2026-04-25 16:46 39.06373 -31.82112 37096 ft 526 kts 90°
2026-04-25 16:46 39.06200 -31.75810 37098 ft 526 kts 90°
2026-04-25 16:47 39.05846 -31.63304 37095 ft 525 kts 90°
2026-04-25 16:47 39.05574 -31.53965 37092 ft 524 kts 90°
2026-04-25 16:48 39.05292 -31.44574 37097 ft 524 kts 90°
2026-04-25 16:48 39.05005 -31.35253 37097 ft 523 kts 90°
2026-04-25 16:49 39.04709 -31.25879 37085 ft 522 kts 90°
2026-04-25 16:49 39.04407 -31.16550 37091 ft 522 kts 90°
2026-04-25 16:50 39.04097 -31.07204 37092 ft 521 kts 90°
2026-04-25 16:50 39.03782 -30.97949 37098 ft 520 kts 90°
2026-04-25 16:51 39.03459 -30.88679 37097 ft 519 kts 90°
2026-04-25 16:51 39.03239 -30.82467 37097 ft 519 kts 90°
2026-04-25 16:52 39.02792 -30.70115 37089 ft 518 kts 90°
2026-04-25 16:52 39.02449 -30.60906 37097 ft 517 kts 90°
2026-04-25 16:53 39.01919 -30.47014 37100 ft 516 kts 90°
2026-04-25 16:54 39.01563 -30.37834 37100 ft 516 kts 90°
2026-04-25 16:54 39.01201 -30.28620 37100 ft 515 kts 90°
2026-04-25 16:55 39.00835 -30.19459 37101 ft 515 kts 90°
2026-04-25 16:55 39.00461 -30.10271 37101 ft 514 kts 90°
2026-04-25 16:56 39.00096 -30.01140 37100 ft 512 kts 87°
2026-04-25 16:56 39.01002 -29.92146 37102 ft 505 kts 75°
2026-04-25 16:57 39.02353 -29.83268 37088 ft 505 kts 76°
2026-04-25 16:57 39.03655 -29.74387 37095 ft 505 kts 76°
2026-04-25 16:58 39.04919 -29.65555 37097 ft 505 kts 76°
2026-04-25 16:58 39.06181 -29.56664 37100 ft 504 kts 76°
2026-04-25 16:59 39.07436 -29.47774 37100 ft 504 kts 76°
2026-04-25 16:59 39.08680 -29.38889 37109 ft 504 kts 76°
2026-04-25 17:00 39.09910 -29.30027 37109 ft 504 kts 76°
2026-04-25 17:00 39.11138 -29.21132 37108 ft 504 kts 76°
2026-04-25 17:01 39.12354 -29.12267 37113 ft 505 kts 76°
2026-04-25 17:01 39.13573 -29.03324 37109 ft 505 kts 77°
2026-04-25 17:02 39.14781 -28.94413 37112 ft 505 kts 77°
2026-04-25 17:02 39.15782 -28.86992 37111 ft 506 kts 77°
2026-04-25 17:03 39.17175 -28.76592 37114 ft 506 kts 77°
2026-04-25 17:03 39.18173 -28.69098 37114 ft 506 kts 77°
2026-04-25 17:04 39.19354 -28.60185 37119 ft 506 kts 77°
2026-04-25 17:04 39.20529 -28.51221 37118 ft 506 kts 77°
2026-04-25 17:05 39.21684 -28.42279 37115 ft 506 kts 77°
2026-04-25 17:05 39.23405 -28.28881 37116 ft 505 kts 77°
2026-04-25 17:06 39.24559 -28.19921 37116 ft 504 kts 77°
2026-04-25 17:06 39.25702 -28.11042 37117 ft 504 kts 77°
2026-04-25 17:07 39.26279 -28.06567 37222 ft 505 kts 82°
2026-04-25 17:07 39.26858 -28.02041 37115 ft 515 kts 83°
2026-04-25 17:07 39.28032 -27.92759 37118 ft 532 kts 83°
2026-04-25 17:08 39.29208 -27.83432 37120 ft 527 kts 83°
2026-04-25 17:08 39.30380 -27.74046 37120 ft 529 kts 83°
2026-04-25 17:09 39.31535 -27.64716 37118 ft 528 kts 83°
2026-04-25 17:09 39.32689 -27.55336 37120 ft 527 kts 83°
2026-04-25 17:10 39.33835 -27.45960 37121 ft 526 kts 83°
2026-04-25 17:10 39.34963 -27.36663 37119 ft 526 kts 83°
2026-04-25 17:11 39.36091 -27.27305 37129 ft 525 kts 83°
2026-04-25 17:11 39.37203 -27.18013 37116 ft 525 kts 83°
2026-04-25 17:12 39.38313 -27.08676 37126 ft 525 kts 83°
2026-04-25 17:12 39.39415 -26.99338 37127 ft 525 kts 83°
2026-04-25 17:13 39.40325 -26.91571 37128 ft 524 kts 83°
2026-04-25 17:13 39.41589 -26.80716 37126 ft 524 kts 83°
2026-04-25 17:14 39.42654 -26.71390 37125 ft 524 kts 83°
2026-04-25 17:14 39.43722 -26.62068 37126 ft 523 kts 83°
2026-04-25 17:15 39.44791 -26.52740 37123 ft 522 kts 83°
2026-04-25 17:15 39.45849 -26.43443 37120 ft 522 kts 83°
2026-04-25 17:16 39.46894 -26.34154 37121 ft 522 kts 83°
2026-04-25 17:16 39.47926 -26.24894 37116 ft 522 kts 83°
2026-04-25 17:17 39.48953 -26.15599 37126 ft 521 kts 83°
2026-04-25 17:17 39.49971 -26.06314 37123 ft 521 kts 83°
2026-04-25 17:18 39.50983 -25.97020 37125 ft 521 kts 83°
2026-04-25 17:18 39.51990 -25.87689 37121 ft 522 kts 83°
2026-04-25 17:19 39.52989 -25.78373 37125 ft 522 kts 83°
2026-04-25 17:19 39.53981 -25.69051 37123 ft 522 kts 83°
2026-04-25 17:20 39.54960 -25.59776 37122 ft 522 kts 83°
2026-04-25 17:20 39.55935 -25.50457 37125 ft 522 kts 83°
2026-04-25 17:21 39.56907 -25.41103 37125 ft 522 kts 83°
2026-04-25 17:21 39.57864 -25.31822 37123 ft 522 kts 83°
2026-04-25 17:22 39.58659 -25.24050 37124 ft 522 kts 83°
2026-04-25 17:22 39.59767 -25.13133 37121 ft 522 kts 84°
2026-04-25 17:23 39.60701 -25.03843 37123 ft 522 kts 84°
2026-04-25 17:23 39.61627 -24.94569 37118 ft 509 kts 84°
2026-04-25 17:24 39.62523 -24.85508 37118 ft 505 kts 84°
2026-04-25 17:24 39.63407 -24.76491 37120 ft 507 kts 84°
2026-04-25 17:25 39.64291 -24.67413 37121 ft 508 kts 85°
2026-04-25 17:25 39.65171 -24.58296 37120 ft 508 kts 85°
2026-04-25 17:26 39.66041 -24.49206 37112 ft 508 kts 85°
2026-04-25 17:26 39.66909 -24.40068 37115 ft 509 kts 85°
2026-04-25 17:27 39.67763 -24.30988 37121 ft 510 kts 85°
2026-04-25 17:27 39.68335 -24.24873 37121 ft 510 kts 85°
2026-04-25 17:28 39.69463 -24.12692 37118 ft 510 kts 85°
2026-04-25 17:28 39.70298 -24.03589 37117 ft 510 kts 85°
2026-04-25 17:29 39.71132 -23.94415 37114 ft 510 kts 85°
2026-04-25 17:29 39.71903 -23.85295 37118 ft 510 kts 87°
2026-04-25 17:30 39.72499 -23.76082 37121 ft 510 kts 88°
2026-04-25 17:30 39.73112 -23.66890 37114 ft 511 kts 87°
2026-04-25 17:31 39.73741 -23.57711 37122 ft 513 kts 87°
2026-04-25 17:31 39.74370 -23.48488 37116 ft 511 kts 87°
2026-04-25 17:32 39.74990 -23.39257 37120 ft 512 kts 87°
2026-04-25 17:32 39.75595 -23.30092 37117 ft 512 kts 88°
2026-04-25 17:33 39.76195 -23.20847 37119 ft 513 kts 88°
2026-04-25 17:33 39.76785 -23.11644 37126 ft 513 kts 88°
2026-04-25 17:34 39.77371 -23.02373 37125 ft 514 kts 88°
2026-04-25 17:34 39.77951 -22.93101 37129 ft 514 kts 88°
2026-04-25 17:35 39.78522 -22.83834 37125 ft 514 kts 88°
2026-04-25 17:35 39.79087 -22.74558 37121 ft 514 kts 88°
2026-04-25 17:36 39.79490 -22.67853 37118 ft 513 kts 88°
2026-04-25 17:36 39.80037 -22.58669 37127 ft 512 kts 88°
2026-04-25 17:37 39.80579 -22.49420 37119 ft 512 kts 88°
2026-04-25 17:37 39.81115 -22.40157 37119 ft 512 kts 88°
2026-04-25 17:38 39.81465 -22.34039 37124 ft 512 kts 88°
2026-04-25 17:38 39.82161 -22.21710 37126 ft 513 kts 88°
2026-04-25 17:39 39.82675 -22.12432 37125 ft 513 kts 89°
2026-04-25 17:39 39.83179 -22.03222 37122 ft 513 kts 89°
2026-04-25 17:40 39.83678 -21.93961 37127 ft 513 kts 89°
2026-04-25 17:40 39.84170 -21.84687 37122 ft 513 kts 89°
2026-04-25 17:41 39.84655 -21.75395 37117 ft 514 kts 89°
2026-04-25 17:41 39.85131 -21.66146 37130 ft 514 kts 89°
2026-04-25 17:42 39.85602 -21.56841 37134 ft 515 kts 89°
2026-04-25 17:42 39.86063 -21.47596 37128 ft 515 kts 89°
2026-04-25 17:43 39.86520 -21.38277 37122 ft 515 kts 89°
2026-04-25 17:43 39.86971 -21.28946 37127 ft 515 kts 89°
2026-04-25 17:44 39.87413 -21.19614 37124 ft 516 kts 89°
2026-04-25 17:44 39.87845 -21.10343 37128 ft 516 kts 89°
2026-04-25 17:45 39.88132 -21.04096 37128 ft 516 kts 89°
2026-04-25 17:45 39.88691 -20.91715 37125 ft 516 kts 89°
2026-04-25 17:46 39.89104 -20.82377 37135 ft 516 kts 89°
2026-04-25 17:46 39.89510 -20.73020 37128 ft 517 kts 89°
2026-04-25 17:47 39.89909 -20.63661 37135 ft 517 kts 89°
2026-04-25 17:47 39.90300 -20.54296 37135 ft 517 kts 90°
2026-04-25 17:48 39.90808 -20.41856 37139 ft 518 kts 90°
2026-04-25 17:49 39.91243 -20.30950 37136 ft 518 kts 90°
2026-04-25 17:49 39.91608 -20.21584 37140 ft 517 kts 90°
2026-04-25 17:50 39.91908 -20.13735 37141 ft 517 kts 90°
2026-04-25 17:50 39.92257 -20.04414 37142 ft 517 kts 90°
2026-04-25 17:51 39.92601 -19.95044 37142 ft 517 kts 90°
2026-04-25 17:51 39.92934 -19.85739 37141 ft 517 kts 90°
2026-04-25 17:52 39.93265 -19.76372 37139 ft 517 kts 90°
2026-04-25 17:52 39.93671 -19.67010 37151 ft 517 kts 90°
2026-04-25 17:53 39.93923 -19.57629 37153 ft 517 kts 90°
2026-04-25 17:53 39.94205 -19.48252 37148 ft 517 kts 90°
2026-04-25 17:54 39.94499 -19.38923 37155 ft 517 kts 90°
2026-04-25 17:54 39.94791 -19.29530 37153 ft 517 kts 90°
2026-04-25 17:55 39.95073 -19.20205 37158 ft 517 kts 90°
2026-04-25 17:55 39.95347 -19.10855 37164 ft 519 kts 90°
2026-04-25 17:56 39.95616 -19.01447 37178 ft 519 kts 90°
2026-04-25 17:56 39.95878 -18.92045 37170 ft 518 kts 90°
2026-04-25 17:57 39.96132 -18.82659 37167 ft 517 kts 90°
2026-04-25 17:57 39.96377 -18.73282 37169 ft 516 kts 90°
2026-04-25 17:58 39.96613 -18.63971 37157 ft 516 kts 90°
2026-04-25 17:58 39.96843 -18.54611 37166 ft 516 kts 90°
2026-04-25 17:59 39.97066 -18.45243 37161 ft 516 kts 90°
2026-04-25 17:59 39.97280 -18.35887 37163 ft 516 kts 90°
2026-04-25 18:00 39.97488 -18.26520 37175 ft 516 kts 90°
2026-04-25 18:00 39.97686 -18.17204 37169 ft 517 kts 90°
2026-04-25 18:01 39.97879 -18.07824 37185 ft 517 kts 90°
2026-04-25 18:01 39.98063 -17.98498 37187 ft 516 kts 90°
2026-04-25 18:02 39.98241 -17.89127 37186 ft 516 kts 90°
2026-04-25 18:02 39.98410 -17.79779 37185 ft 515 kts 90°
2026-04-25 18:03 39.98571 -17.70465 37184 ft 515 kts 90°
2026-04-25 18:03 39.98726 -17.61078 37187 ft 515 kts 90°
2026-04-25 18:04 39.98872 -17.51799 37186 ft 514 kts 90°
2026-04-25 18:04 39.99011 -17.42468 37184 ft 514 kts 90°
2026-04-25 18:05 39.99143 -17.33136 37183 ft 513 kts 91°
2026-04-25 18:05 39.99267 -17.23815 37183 ft 513 kts 91°
2026-04-25 18:06 39.99383 -17.14538 37189 ft 514 kts 90°
2026-04-25 18:06 39.99492 -17.05204 37193 ft 514 kts 90°
2026-04-25 18:07 39.99593 -16.95931 37192 ft 514 kts 90°
2026-04-25 18:07 39.99688 -16.86597 37190 ft 514 kts 90°
2026-04-25 18:08 39.99774 -16.77294 37196 ft 514 kts 90°
2026-04-25 18:08 39.99854 -16.67944 37198 ft 514 kts 90°
2026-04-25 18:09 39.99926 -16.58603 37201 ft 514 kts 90°
2026-04-25 18:09 39.99990 -16.49314 37196 ft 514 kts 90°
2026-04-25 18:10 40.00047 -16.40039 37198 ft 514 kts 90°
2026-04-25 18:10 40.00096 -16.30649 37198 ft 514 kts 90°
2026-04-25 18:11 40.00138 -16.21385 37199 ft 513 kts 90°
2026-04-25 18:11 40.00173 -16.12036 37201 ft 513 kts 90°
2026-04-25 18:12 40.00200 -16.02697 37199 ft 513 kts 90°
2026-04-25 18:12 40.00219 -15.93403 37199 ft 511 kts 90°
2026-04-25 18:13 40.00231 -15.84174 37200 ft 511 kts 90°
2026-04-25 18:13 40.00236 -15.74869 37195 ft 511 kts 90°
2026-04-25 18:14 40.00229 -15.60973 37200 ft 510 kts 90°
2026-04-25 18:14 40.00215 -15.51756 37194 ft 510 kts 90°
2026-04-25 18:15 40.00194 -15.42474 37196 ft 510 kts 90°
2026-04-25 18:15 40.00169 -15.33226 37194 ft 510 kts 90°
2026-04-25 18:16 40.00139 -15.23985 37193 ft 509 kts 90°
2026-04-25 18:17 40.00083 -15.10185 37202 ft 508 kts 90°
2026-04-25 18:17 40.00093 -15.00972 37198 ft 507 kts 85°
2026-04-25 18:18 40.01417 -14.91948 37197 ft 506 kts 76°
2026-04-25 18:18 40.03032 -14.83065 37201 ft 506 kts 76°
2026-04-25 18:19 40.04648 -14.74096 37208 ft 505 kts 76°
2026-04-25 18:19 40.06228 -14.65247 37199 ft 502 kts 76°
2026-04-25 18:20 40.07795 -14.56352 37199 ft 502 kts 76°
2026-04-25 18:20 40.09363 -14.47457 37200 ft 501 kts 76°
2026-04-25 18:21 40.10916 -14.38637 37202 ft 500 kts 77°
2026-04-25 18:21 40.12473 -14.29733 37736 ft 502 kts 77°
2026-04-25 18:21 40.13249 -14.25274 38211 ft 501 kts 77°
2026-04-25 18:22 40.14010 -14.20888 38674 ft 500 kts 77°
2026-04-25 18:22 40.14268 -14.19396 38828 ft 499 kts 77°
2026-04-25 18:22 40.15542 -14.12021 39333 ft 500 kts 77°
2026-04-25 18:22 40.16307 -14.07579 39613 ft 501 kts 77°
2026-04-25 18:23 40.17070 -14.03131 39878 ft 502 kts 77°
2026-04-25 18:23 40.17829 -13.98702 40126 ft 503 kts 77°
2026-04-25 18:23 40.18597 -13.94210 40201 ft 507 kts 77°
2026-04-25 18:24 40.20113 -13.85303 40199 ft 498 kts 77°
2026-04-25 18:24 40.21620 -13.76410 40193 ft 500 kts 77°
2026-04-25 18:25 40.23110 -13.67573 40194 ft 500 kts 77°
2026-04-25 18:25 40.24607 -13.58643 40196 ft 501 kts 77°
2026-04-25 18:26 40.26089 -13.49766 40199 ft 502 kts 77°
2026-04-25 18:26 40.27579 -13.40797 40193 ft 501 kts 77°
2026-04-25 18:27 40.29046 -13.31917 40192 ft 502 kts 77°
2026-04-25 18:27 40.30517 -13.22965 40185 ft 502 kts 77°
2026-04-25 18:28 40.31985 -13.13991 40187 ft 503 kts 77°
2026-04-25 18:28 40.33446 -13.05014 40185 ft 503 kts 77°
2026-04-25 18:29 40.35615 -12.91596 40177 ft 503 kts 77°
2026-04-25 18:30 40.38491 -12.73639 40183 ft 503 kts 78°
2026-04-25 18:30 40.39920 -12.64643 40187 ft 503 kts 78°
2026-04-25 18:31 40.41335 -12.55690 40185 ft 502 kts 78°
2026-04-25 18:31 40.42746 -12.46719 40186 ft 501 kts 78°
2026-04-25 18:32 40.44154 -12.37716 40179 ft 503 kts 78°
2026-04-25 18:32 40.45542 -12.28792 40176 ft 501 kts 78°
2026-04-25 18:33 40.46930 -12.19822 40176 ft 501 kts 78°
2026-04-25 18:33 40.48313 -12.10836 40173 ft 501 kts 78°
2026-04-25 18:34 40.49454 -12.03380 40171 ft 501 kts 78°
2026-04-25 18:34 40.51046 -11.92926 40171 ft 501 kts 78°
2026-04-25 18:35 40.52180 -11.85443 40170 ft 501 kts 78°
2026-04-25 18:35 40.53539 -11.76424 40165 ft 502 kts 78°
2026-04-25 18:36 40.54890 -11.67405 40165 ft 502 kts 78°
2026-04-25 18:36 40.56226 -11.58442 40167 ft 502 kts 78°
2026-04-25 18:37 40.57564 -11.49407 40161 ft 502 kts 78°
2026-04-25 18:37 40.58895 -11.40374 40158 ft 502 kts 79°
2026-04-25 18:38 40.60213 -11.31379 40159 ft 503 kts 79°
2026-04-25 18:38 40.61534 -11.22313 40153 ft 503 kts 79°
2026-04-25 18:39 40.62844 -11.13266 40155 ft 503 kts 79°
2026-04-25 18:39 40.64142 -11.04251 40154 ft 503 kts 79°
2026-04-25 18:40 40.65437 -10.95202 40152 ft 503 kts 79°
2026-04-25 18:40 40.66728 -10.86136 40147 ft 503 kts 79°
2026-04-25 18:41 40.68012 -10.77057 40147 ft 503 kts 79°
2026-04-25 18:41 40.69284 -10.68014 40143 ft 504 kts 79°
2026-04-25 18:42 40.70342 -10.60449 40143 ft 506 kts 79°
2026-04-25 18:42 40.71830 -10.49749 40137 ft 508 kts 79°
2026-04-25 18:43 40.73098 -10.40567 40137 ft 507 kts 79°
2026-04-25 18:43 40.74343 -10.31495 40132 ft 504 kts 79°
2026-04-25 18:44 40.75588 -10.22373 40130 ft 506 kts 79°
2026-04-25 18:44 40.76826 -10.13242 40129 ft 504 kts 79°
2026-04-25 18:45 40.78049 -10.04171 40129 ft 505 kts 79°
2026-04-25 18:45 40.79269 -9.95058 40124 ft 501 kts 79°
2026-04-25 18:46 40.80472 -9.86022 40122 ft 499 kts 79°
2026-04-25 18:46 40.81669 -9.76969 40119 ft 500 kts 79°
2026-04-25 18:47 40.82854 -9.67962 40123 ft 500 kts 79°
2026-04-25 18:47 40.84042 -9.58904 40118 ft 499 kts 80°
2026-04-25 18:48 40.84704 -9.49756 40103 ft 499 kts 88°
2026-04-25 18:48 40.84502 -9.40600 40103 ft 498 kts 96°
2026-04-25 18:49 40.83843 -9.31554 40099 ft 497 kts 95°
2026-04-25 18:49 40.83209 -9.22449 40096 ft 497 kts 95°
2026-04-25 18:50 40.82554 -9.13340 40094 ft 498 kts 95°
2026-04-25 18:50 40.81886 -9.04235 40091 ft 503 kts 95°
2026-04-25 18:51 40.81320 -8.96601 40084 ft 501 kts 95°
2026-04-25 18:51 40.80520 -8.85932 40080 ft 498 kts 95°
2026-04-25 18:52 40.79832 -8.76853 40076 ft 498 kts 95°
2026-04-25 18:52 40.79136 -8.67768 40076 ft 496 kts 95°
2026-04-25 18:53 40.78434 -8.58708 40075 ft 495 kts 95°
2026-04-25 18:53 40.77732 -8.49721 40076 ft 494 kts 95°
2026-04-25 18:54 40.76658 -8.36169 40077 ft 495 kts 95°
2026-04-25 18:55 40.75934 -8.27133 40076 ft 495 kts 95°
2026-04-25 18:55 40.75202 -8.18094 40071 ft 495 kts 95°
2026-04-25 18:56 40.74469 -8.09140 40074 ft 494 kts 95°
2026-04-25 18:56 40.73725 -8.00132 40068 ft 494 kts 95°
2026-04-25 18:57 40.72974 -7.91123 40065 ft 493 kts 95°
2026-04-25 18:57 40.72215 -7.82107 40074 ft 494 kts 95°
2026-04-25 18:58 40.71449 -7.73088 40072 ft 493 kts 95°
2026-04-25 18:58 40.70293 -7.59641 40069 ft 493 kts 95°
2026-04-25 18:59 40.68726 -7.41700 40069 ft 493 kts 96°
2026-04-25 19:00 40.67533 -7.28258 40080 ft 494 kts 96°
2026-04-25 19:01 40.66319 -7.14758 40086 ft 494 kts 96°
2026-04-25 19:01 40.65499 -7.05741 40077 ft 493 kts 96°
2026-04-25 19:02 40.64267 -6.92345 40074 ft 492 kts 96°
2026-04-25 19:03 40.63294 -6.81881 40081 ft 492 kts 96°
2026-04-25 19:03 40.62178 -6.70007 40082 ft 492 kts 96°
2026-04-25 19:04 40.60903 -6.56601 40085 ft 492 kts 96°
2026-04-25 19:05 40.59180 -6.38737 40089 ft 493 kts 96°
2026-04-25 19:06 40.58752 -6.29755 40089 ft 490 kts 87°
2026-04-25 19:06 40.60056 -6.16437 40092 ft 489 kts 79°
2026-04-25 19:07 40.61665 -6.03234 40095 ft 489 kts 80°
2026-04-25 19:08 40.63268 -5.89959 40103 ft 489 kts 80°
2026-04-25 19:09 40.65025 -5.75262 40109 ft 488 kts 80°
2026-04-25 19:10 40.66938 -5.59066 40106 ft 487 kts 80°
2026-04-25 19:10 40.67964 -5.50298 40103 ft 487 kts 80°
2026-04-25 19:11 40.68989 -5.41476 40120 ft 487 kts 80°
2026-04-25 19:11 40.70008 -5.32642 40124 ft 487 kts 80°
2026-04-25 19:12 40.71022 -5.23795 40124 ft 487 kts 80°
2026-04-25 19:12 40.72021 -5.15020 40125 ft 487 kts 80°
2026-04-25 19:13 40.73018 -5.06198 40123 ft 486 kts 80°
2026-04-25 19:13 40.74008 -4.97376 40124 ft 486 kts 80°
2026-04-25 19:14 40.74993 -4.88537 40128 ft 486 kts 80°
2026-04-25 19:14 40.75986 -4.79696 40125 ft 486 kts 81°
2026-04-25 19:15 40.76948 -4.70852 40125 ft 492 kts 81°
2026-04-25 19:15 40.77915 -4.61969 40125 ft 485 kts 81°
2026-04-25 19:16 40.78866 -4.53149 40128 ft 485 kts 81°
2026-04-25 19:16 40.79816 -4.44308 40129 ft 486 kts 81°
2026-04-25 19:17 40.80758 -4.35469 40130 ft 486 kts 81°
2026-04-25 19:17 40.81690 -4.26672 40128 ft 486 kts 81°
2026-04-25 19:18 40.82621 -4.17811 40133 ft 486 kts 81°
2026-04-25 19:18 40.83538 -4.09018 40133 ft 486 kts 81°
2026-04-25 19:19 40.84456 -4.00141 40134 ft 486 kts 81°
2026-04-25 19:19 40.85360 -3.91335 40137 ft 486 kts 81°
2026-04-25 19:20 40.86117 -3.83915 40136 ft 486 kts 82°
2026-04-25 19:20 40.87008 -3.75112 40136 ft 486 kts 82°
2026-04-25 19:21 40.87899 -3.66245 40133 ft 486 kts 82°
2026-04-25 19:21 40.89217 -3.52993 40129 ft 485 kts 82°
2026-04-25 19:22 40.90089 -3.44137 40131 ft 485 kts 82°
2026-04-25 19:23 40.91382 -3.30875 40133 ft 485 kts 82°
2026-04-25 19:23 40.92661 -3.17593 40135 ft 485 kts 82°
2026-04-25 19:24 40.93501 -3.08784 40137 ft 484 kts 82°
2026-04-25 19:25 40.95167 -2.91083 40136 ft 484 kts 82°
2026-04-25 19:25 40.95991 -2.82229 40135 ft 485 kts 82°
2026-04-25 19:26 40.96805 -2.73398 40140 ft 485 kts 82°
2026-04-25 19:26 40.97619 -2.64526 40138 ft 485 kts 83°
2026-04-25 19:27 40.98527 -2.57139 40135 ft 485 kts 75°
2026-04-25 19:27 41.00480 -2.47090 40138 ft 485 kts 75°
2026-04-25 19:28 41.02140 -2.38422 40141 ft 485 kts 75°
2026-04-25 19:28 41.03785 -2.29752 40142 ft 487 kts 75°
2026-04-25 19:29 41.05426 -2.21051 40143 ft 486 kts 76°
2026-04-25 19:29 41.07061 -2.12345 40145 ft 487 kts 76°
2026-04-25 19:30 41.08682 -2.03677 40139 ft 486 kts 76°
2026-04-25 19:30 41.10306 -1.94954 40140 ft 487 kts 76°
2026-04-25 19:31 41.11928 -1.86199 40147 ft 488 kts 76°
2026-04-25 19:31 41.13531 -1.77509 40142 ft 488 kts 76°
2026-04-25 19:32 41.15138 -1.68756 40139 ft 487 kts 76°
2026-04-25 19:32 41.16467 -1.61485 40132 ft 487 kts 76°
2026-04-25 19:33 41.18328 -1.51264 40132 ft 487 kts 76°
2026-04-25 19:33 41.19901 -1.42575 40131 ft 486 kts 76°
2026-04-25 19:34 41.21478 -1.33826 40129 ft 486 kts 76°
2026-04-25 19:34 41.23047 -1.25081 40122 ft 486 kts 76°
2026-04-25 19:35 41.24607 -1.16342 40119 ft 485 kts 76°
2026-04-25 19:35 41.26151 -1.07653 40114 ft 485 kts 76°
2026-04-25 19:36 41.27696 -0.98919 40104 ft 484 kts 77°
2026-04-25 19:36 41.29224 -0.90240 40098 ft 484 kts 77°
2026-04-25 19:37 41.30756 -0.81493 40087 ft 484 kts 77°
2026-04-25 19:37 41.32280 -0.72754 40082 ft 485 kts 77°
2026-04-25 19:38 41.33800 -0.63998 40084 ft 485 kts 77°
2026-04-25 19:38 41.35309 -0.55259 40083 ft 486 kts 78°
2026-04-25 19:39 41.36590 -0.46418 40084 ft 486 kts 79°
2026-04-25 19:39 41.37894 -0.37634 40089 ft 487 kts 79°
2026-04-25 19:40 41.39200 -0.28775 40089 ft 488 kts 79°
2026-04-25 19:40 41.40494 -0.19884 40091 ft 486 kts 79°
2026-04-25 19:41 41.41771 -0.11035 40093 ft 487 kts 79°
2026-04-25 19:41 41.42623 -0.05096 40093 ft 488 kts 79°
2026-04-25 19:42 41.44308 0.06709 40096 ft 486 kts 79°
2026-04-25 19:42 41.45557 0.15524 40094 ft 487 kts 79°
2026-04-25 19:43 41.46807 0.24395 40090 ft 487 kts 79°
2026-04-25 19:43 41.48053 0.33287 40097 ft 487 kts 79°
2026-04-25 19:44 41.49290 0.42172 40101 ft 487 kts 79°
2026-04-25 19:44 41.50522 0.51071 40101 ft 487 kts 79°
2026-04-25 19:45 41.51740 0.59924 40109 ft 487 kts 79°
2026-04-25 19:45 41.52959 0.68836 40103 ft 488 kts 79°
2026-04-25 19:46 41.54173 0.77758 40116 ft 488 kts 79°
2026-04-25 19:46 41.55371 0.86625 40121 ft 487 kts 79°
2026-04-25 19:47 41.56569 0.95540 40130 ft 487 kts 79°
2026-04-25 19:47 41.57753 1.04415 40129 ft 487 kts 80°
2026-04-25 19:48 41.58934 1.13313 40126 ft 487 kts 80°
2026-04-25 19:48 41.60110 1.22233 40125 ft 487 kts 80°
2026-04-25 19:49 41.60892 1.28193 40126 ft 487 kts 80°
2026-04-25 19:49 41.62440 1.40066 40125 ft 487 kts 80°
2026-04-25 19:50 41.64164 1.53409 40124 ft 487 kts 80°
2026-04-25 19:51 41.65309 1.62336 40124 ft 487 kts 80°
2026-04-25 19:51 41.66446 1.71260 40115 ft 488 kts 80°
2026-04-25 19:52 41.67581 1.80224 40119 ft 488 kts 80°
2026-04-25 19:52 41.68710 1.89206 40122 ft 489 kts 81°
2026-04-25 19:53 41.69827 1.98152 40124 ft 489 kts 81°
2026-04-25 19:53 41.70940 2.07131 40125 ft 489 kts 81°
2026-04-25 19:54 41.72050 2.16129 40126 ft 489 kts 81°
2026-04-25 19:54 41.73150 2.25117 40121 ft 490 kts 81°
2026-04-25 19:55 41.74248 2.34147 40112 ft 490 kts 81°
2026-04-25 19:55 41.75329 2.43086 40106 ft 490 kts 81°
2026-04-25 19:56 41.76411 2.52108 40101 ft 490 kts 81°
2026-04-25 19:56 41.77486 2.61131 40102 ft 490 kts 81°
2026-04-25 19:57 41.78548 2.70108 40103 ft 491 kts 81°
2026-04-25 19:57 41.79611 2.79156 40102 ft 491 kts 81°
2026-04-25 19:58 41.80666 2.88196 40103 ft 491 kts 81°
2026-04-25 19:58 41.81721 2.97299 40098 ft 492 kts 81°
2026-04-25 19:59 41.82757 3.06300 40097 ft 490 kts 81°
2026-04-25 19:59 41.83790 3.15346 40099 ft 491 kts 81°
2026-04-25 20:00 41.84819 3.24421 40101 ft 492 kts 81°
2026-04-25 20:00 41.85837 3.33463 40097 ft 492 kts 81°
2026-04-25 20:01 41.87356 3.47075 40104 ft 492 kts 82°
2026-04-25 20:01 41.88362 3.56180 40104 ft 493 kts 82°
2026-04-25 20:02 41.89362 3.65292 40113 ft 493 kts 82°
2026-04-25 20:02 41.90355 3.74410 40115 ft 494 kts 82°
2026-04-25 20:03 41.91340 3.83497 40122 ft 494 kts 82°
2026-04-25 20:03 41.92565 3.92589 40120 ft 494 kts 74°
2026-04-25 20:04 41.94488 3.99799 40127 ft 494 kts 65°
2026-04-25 20:04 41.97715 4.09667 40119 ft 494 kts 66°
2026-04-25 20:05 41.99990 4.16707 40121 ft 494 kts 66°
2026-04-25 20:05 42.02729 4.25187 40121 ft 496 kts 66°
2026-04-25 20:06 42.05789 4.33476 40116 ft 493 kts 53°
2026-04-25 20:06 42.09781 4.40902 40117 ft 492 kts 53°
2026-04-25 20:07 42.13780 4.48397 40118 ft 492 kts 53°
2026-04-25 20:07 42.17751 4.55902 40109 ft 491 kts 53°
2026-04-25 20:08 42.21686 4.63368 40100 ft 490 kts 53°
2026-04-25 20:08 42.25632 4.70874 40097 ft 489 kts 53°
2026-04-25 20:09 42.29574 4.78391 40096 ft 489 kts 53°
2026-04-25 20:09 42.33514 4.85923 40100 ft 489 kts 53°
2026-04-25 20:10 42.37418 4.93403 40098 ft 490 kts 53°
2026-04-25 20:10 42.41346 5.00951 40105 ft 490 kts 53°
2026-04-25 20:11 42.45272 5.08512 40110 ft 491 kts 53°
2026-04-25 20:11 42.49201 5.16098 40114 ft 491 kts 53°
2026-04-25 20:12 42.53099 5.23643 40121 ft 491 kts 53°
2026-04-25 20:12 42.56348 5.29947 40119 ft 491 kts 53°
2026-04-25 20:13 42.60913 5.38827 40119 ft 490 kts 54°
2026-04-25 20:13 42.64793 5.46396 40110 ft 489 kts 54°
2026-04-25 20:14 42.68680 5.53995 40113 ft 488 kts 54°
2026-04-25 20:14 42.72533 5.61549 40110 ft 488 kts 54°
2026-04-25 20:15 42.76404 5.69158 40110 ft 488 kts 54°
2026-04-25 20:15 42.80273 5.76783 40109 ft 488 kts 54°
2026-04-25 20:16 42.84107 5.84356 40108 ft 488 kts 54°
2026-04-25 20:16 42.87968 5.92002 40105 ft 488 kts 54°
2026-04-25 20:17 42.91818 5.99647 40105 ft 488 kts 54°
2026-04-25 20:17 42.95634 6.07244 40102 ft 488 kts 54°
2026-04-25 20:18 42.99479 6.14918 40097 ft 488 kts 54°
2026-04-25 20:18 43.03311 6.22585 40092 ft 488 kts 54°
2026-04-25 20:19 43.07112 6.30210 40089 ft 488 kts 54°
2026-04-25 20:19 43.10935 6.37900 40087 ft 488 kts 54°
2026-04-25 20:20 43.14796 6.45541 40089 ft 487 kts 53°
2026-04-25 20:20 43.18741 6.52937 40076 ft 475 kts 52°
2026-04-25 20:21 43.22631 6.60279 40077 ft 475 kts 53°
2026-04-25 20:21 43.26480 6.67612 40086 ft 476 kts 53°
2026-04-25 20:22 43.29695 6.73760 40081 ft 476 kts 53°
2026-04-25 20:22 43.34184 6.82365 40094 ft 475 kts 53°
2026-04-25 20:23 43.38034 6.89765 40068 ft 475 kts 53°
2026-04-25 20:23 43.41874 6.97164 40063 ft 475 kts 53°
2026-04-25 20:24 43.45699 7.04552 40099 ft 477 kts 53°
2026-04-25 20:24 43.49547 7.12006 40101 ft 476 kts 53°
2026-04-25 20:25 43.53385 7.19456 40104 ft 476 kts 53°
2026-04-25 20:25 43.57193 7.26868 40103 ft 477 kts 53°
2026-04-25 20:26 43.61023 7.34342 40105 ft 477 kts 53°
2026-04-25 20:26 43.64862 7.41852 40111 ft 477 kts 53°
2026-04-25 20:27 43.68684 7.49347 39874 ft 478 kts 53°
2026-04-25 20:27 43.70565 7.53045 39641 ft 475 kts 53°
2026-04-25 20:27 43.72472 7.56797 39405 ft 475 kts 53°
2026-04-25 20:28 43.74372 7.60541 39169 ft 474 kts 53°
2026-04-25 20:28 43.76268 7.64280 38943 ft 475 kts 53°
2026-04-25 20:28 43.78164 7.68026 38692 ft 475 kts 53°
2026-04-25 20:28 43.80071 7.71769 38421 ft 475 kts 51°
2026-04-25 20:29 43.82206 7.75258 38126 ft 475 kts 44°
2026-04-25 20:29 43.84625 7.78364 37846 ft 473 kts 37°
2026-04-25 20:29 43.87205 7.81120 37605 ft 473 kts 35°
2026-04-25 20:29 43.89826 7.83923 37322 ft 474 kts 36°
2026-04-25 20:30 43.92375 7.86856 37042 ft 476 kts 43°
2026-04-25 20:30 43.94586 7.90299 36785 ft 479 kts 52°
2026-04-25 20:30 43.96401 7.94203 36518 ft 482 kts 60°
2026-04-25 20:30 43.97782 7.98376 35994 ft 484 kts 66°
2026-04-25 20:31 43.99074 8.02686 35448 ft 482 kts 65°
2026-04-25 20:31 44.00384 8.06971 34770 ft 482 kts 65°
2026-04-25 20:31 44.01700 8.11266 34036 ft 483 kts 65°
2026-04-25 20:31 44.03010 8.15560 33468 ft 479 kts 65°
2026-04-25 20:32 44.04292 8.19782 33310 ft 466 kts 65°
2026-04-25 20:32 44.05533 8.23883 33073 ft 455 kts 65°
2026-04-25 20:32 44.06749 8.27905 32799 ft 446 kts 65°
2026-04-25 20:32 44.07940 8.31853 32551 ft 438 kts 65°
2026-04-25 20:33 44.09107 8.35730 32300 ft 430 kts 65°
2026-04-25 20:33 44.10245 8.39511 31940 ft 427 kts 65°
2026-04-25 20:33 44.11388 8.43313 31473 ft 424 kts 65°
2026-04-25 20:33 44.12144 8.45831 31103 ft 425 kts 65°
2026-04-25 20:34 44.13654 8.50871 30643 ft 418 kts 65°
2026-04-25 20:34 44.14767 8.54595 30236 ft 414 kts 65°
2026-04-25 20:34 44.15872 8.58294 29764 ft 411 kts 65°
2026-04-25 20:34 44.16960 8.61944 29563 ft 401 kts 65°
2026-04-25 20:35 44.18006 8.65452 29316 ft 394 kts 64°
2026-04-25 20:35 44.19405 8.68688 28937 ft 386 kts 47°
2026-04-25 20:35 44.21391 8.71139 28441 ft 379 kts 29°
2026-04-25 20:35 44.23785 8.72588 28028 ft 372 kts 11°
2026-04-25 20:36 44.26333 8.72945 27609 ft 367 kts 359°
2026-04-25 20:36 44.28848 8.72980 27209 ft 364 kts 359°
2026-04-25 20:36 44.31376 8.73052 26820 ft 362 kts 360°
2026-04-25 20:36 44.33895 8.73147 26434 ft 359 kts
2026-04-25 20:37 44.36394 8.73252 26063 ft 357 kts
2026-04-25 20:37 44.38872 8.73360 25674 ft 355 kts
2026-04-25 20:37 44.41329 8.73467 25101 ft 353 kts
2026-04-25 20:37 44.43747 8.73572 24549 ft 349 kts
2026-04-25 20:38 44.46163 8.73676 24002 ft 345 kts
2026-04-25 20:38 44.48568 8.73780 23399 ft 342 kts
2026-04-25 20:38 44.50927 8.73883 22812 ft 337 kts
2026-04-25 20:38 44.53243 8.73982 22214 ft 334 kts
2026-04-25 20:39 44.55579 8.74084 21622 ft 330 kts
2026-04-25 20:39 44.57831 8.74183 21075 ft 326 kts
2026-04-25 20:39 44.60087 8.74281 20516 ft 322 kts
2026-04-25 20:39 44.60848 8.74314 20327 ft 321 kts
2026-04-25 20:40 44.64537 8.74475 19447 ft 316 kts
2026-04-25 20:40 44.66726 8.74570 18905 ft 312 kts
2026-04-25 20:40 44.68887 8.74506 18352 ft 309 kts 352°
2026-04-25 20:40 44.70990 8.73943 17711 ft 308 kts 344°
2026-04-25 20:41 44.72998 8.72907 17490 ft 313 kts 337°
2026-04-25 20:41 44.75015 8.71767 17472 ft 314 kts 340°
2026-04-25 20:41 44.77066 8.70741 17418 ft 309 kts 341°
2026-04-25 20:41 44.79079 8.69750 17208 ft 305 kts 341°
2026-04-25 20:42 44.81080 8.68750 16643 ft 305 kts 341°
2026-04-25 20:42 44.83053 8.67745 16043 ft 303 kts 340°
2026-04-25 20:42 44.85029 8.66727 15439 ft 302 kts 340°
2026-04-25 20:42 44.87007 8.65702 14869 ft 301 kts 340°
2026-04-25 20:43 44.88944 8.64696 14352 ft 299 kts 341°
2026-04-25 20:43 44.90896 8.63681 13792 ft 298 kts 341°
2026-04-25 20:43 44.92837 8.62671 13246 ft 296 kts 341°
2026-04-25 20:43 44.94762 8.61670 12716 ft 294 kts 341°
2026-04-25 20:44 44.96668 8.60677 12347 ft 292 kts 341°
2026-04-25 20:44 44.98573 8.59685 11965 ft 291 kts 341°
2026-04-25 20:44 45.00484 8.58777 11587 ft 288 kts 347°
2026-04-25 20:44 45.02447 8.58239 11221 ft 286 kts 351°
2026-04-25 20:45 45.04380 8.57725 10857 ft 285 kts 350°
2026-04-25 20:45 45.06324 8.57187 10494 ft 283 kts 350°
2026-04-25 20:45 45.08256 8.56649 10136 ft 282 kts 350°
2026-04-25 20:45 45.10192 8.56110 9737 ft 282 kts 350°
2026-04-25 20:46 45.12093 8.55580 9477 ft 279 kts 350°
2026-04-25 20:46 45.13973 8.55057 9285 ft 270 kts 350°
2026-04-25 20:46 45.15795 8.54549 9104 ft 262 kts 350°
2026-04-25 20:46 45.17566 8.54056 8923 ft 255 kts 350°
2026-04-25 20:47 45.19289 8.53577 8739 ft 249 kts 350°
2026-04-25 20:47 45.20952 8.53115 8566 ft 244 kts 349°
2026-04-25 20:47 45.22628 8.52648 8361 ft 241 kts 350°
2026-04-25 20:47 45.24260 8.52196 8237 ft 242 kts 349°
2026-04-25 20:48 45.25927 8.51735 8054 ft 244 kts 349°
2026-04-25 20:48 45.27587 8.51274 7825 ft 242 kts 349°
2026-04-25 20:48 45.28819 8.50932 7693 ft 238 kts 349°
2026-04-25 20:48 45.30424 8.50667 7592 ft 229 kts
2026-04-25 20:49 45.31886 8.51349 7487 ft 220 kts 31°
2026-04-25 20:49 45.32974 8.52834 7355 ft 218 kts 56°
2026-04-25 20:49 45.33531 8.54765 6951 ft 210 kts 76°
2026-04-25 20:49 45.33781 8.56843 6239 ft 215 kts 78°
2026-04-25 20:50 45.33947 8.58246 5716 ft 217 kts 78°
2026-04-25 20:50 45.34210 8.60355 5012 ft 215 kts 78°
2026-04-25 20:50 45.34577 8.63113 4105 ft 213 kts 78°
2026-04-25 20:50 45.34761 8.64489 3656 ft 212 kts 78°
2026-04-25 20:51 45.35034 8.66527 3216 ft 209 kts 78°
2026-04-25 20:51 45.35311 8.68577 3049 ft 212 kts 78°
2026-04-25 20:51 45.35594 8.70639 2998 ft 212 kts 78°
2026-04-25 20:51 45.35875 8.72679 3000 ft 213 kts 78°
2026-04-25 20:52 45.36158 8.74732 2997 ft 206 kts 78°
2026-04-25 20:52 45.36356 8.76046 2990 ft 197 kts 71°
2026-04-25 20:52 45.37490 8.77867 3012 ft 189 kts 25°
2026-04-25 20:52 45.38699 8.78645 2995 ft 190 kts 23°
2026-04-25 20:53 45.39954 8.79227 2999 ft 189 kts
2026-04-25 20:53 45.41271 8.79259 2999 ft 189 kts 354°
2026-04-25 20:53 45.42578 8.78995 2997 ft 189 kts 349°
2026-04-25 20:53 45.43853 8.78650 2996 ft 188 kts 348°
2026-04-25 20:54 45.45145 8.78295 2997 ft 188 kts 348°
2026-04-25 20:54 45.46434 8.77940 2998 ft 188 kts 348°
2026-04-25 20:54 45.47723 8.77585 2999 ft 189 kts 348°
2026-04-25 20:54 45.49001 8.77232 3001 ft 188 kts 348°
2026-04-25 20:55 45.50285 8.76878 2975 ft 189 kts 348°
2026-04-25 20:55 45.51582 8.76520 2730 ft 186 kts 347°
2026-04-25 20:55 45.52791 8.76188 2481 ft 165 kts 347°
2026-04-25 20:55 45.53865 8.75890 2269 ft 154 kts 346°
2026-04-25 20:56 45.54908 8.75602 2073 ft 152 kts 347°
2026-04-25 20:56 45.55935 8.75315 1880 ft 150 kts 347°
2026-04-25 20:56 45.56972 8.75032 1711 ft 151 kts 346°
2026-04-25 20:56 45.58001 8.74752 1531 ft 149 kts 347°
2026-04-25 20:57 45.59017 8.74465 1313 ft 150 kts 347°
2026-04-25 20:57 45.60025 8.74180 1088 ft 148 kts 349°
2026-04-25 20:57 45.61041 8.73906 885 ft 148 kts 348°
2026-04-25 20:57 45.62074 8.73611 745 ft 148 kts 348°
2026-04-25 20:58 45.62916 8.73378 739 ft 89 kts 349°
2026-04-25 20:58 45.63335 8.73264 739 ft 34 kts 349°
2026-04-25 20:58 45.63499 8.73219 742 ft 23 kts 349°
2026-04-25 20:58 45.63655 8.73140 742 ft 24 kts 330°
2026-04-25 20:59 45.63784 8.72978 741 ft 26 kts 309°
2026-04-25 20:59 45.63878 8.72785 738 ft 11 kts 302°
2026-04-25 20:59 45.63926 8.72676 740 ft 15 kts 303°
2026-04-25 20:59 45.63966 8.72528 740 ft 17 kts 262°
2026-04-25 21:00 45.63930 8.72361 740 ft 18 kts 255°
2026-04-25 21:00 45.63918 8.72241 740 ft 19 kts 266°
2026-04-25 21:00 45.63885 8.71873 740 ft 16 kts 237°
2026-04-25 21:01 45.63824 8.71817 742 ft 10 kts 185°
2026-04-25 21:01 45.63745 8.71836 739 ft 13 kts 165°
2026-04-25 21:01 45.63650 8.71872 741 ft 15 kts 166°
2026-04-25 21:01 45.63541 8.71902 740 ft 17 kts 171°
2026-04-25 21:02 45.63422 8.71930 739 ft 18 kts 170°
2026-04-25 21:02 45.63350 8.71948 741 ft 7 kts 171°
2026-04-25 21:02 45.63310 8.71928 738 ft 6 kts 241°
2026-04-25 21:02 45.63298 8.71849 739 ft 11 kts 259°
2026-04-25 21:03 45.63280 8.71719 741 ft 15 kts 259°
2026-04-25 21:03 45.63260 8.71563 738 ft 15 kts 260°
2026-04-25 21:03 45.63240 8.71492 738 ft 7 kts 209°
2026-04-25 21:03 45.63189 8.71465 739 ft 7 kts 199°
2026-04-25 21:04 45.63177 8.71459 739 ft 0 kts 199°